Observation data for Bootleg on 02/14/2020      Previous  Date  Next       Current Mesonet Observations  Soil Data  Daily Summary Page  Observations in Plain Language
KBO1 140600Z 15014KT M03/M03 A3021 RMK A01 T10261034  RH  095%=      5-min Rain = 0
KBO1 140601Z 15015G20KT M03/M03 A3021 RMK A01 T10271034  RH  095%=      5-min Rain = 0
KBO1 140602Z 15015KT M03/M03 A3022 RMK A01 T10271034  RH  095%=      5-min Rain = 0
KBO1 140603Z 15016KT M03/M04 A3022 RMK A01 T10271035  RH  094%=      5-min Rain = 0
KBO1 140604Z 15014KT M03/M03 A3022 RMK A01 T10261034  RH  094%=      5-min Rain = 0
KBO1 140605Z 15014KT M03/M03 A3022 RMK A01 T10271034  RH  094%=      5-min Rain = 0
KBO1 140606Z 14014KT M03/M03 A3022 RMK A01 T10261034  RH  095%=      5-min Rain = 0
KBO1 140607Z 14016KT M03/M03 A3022 RMK A01 T10271034  RH  095%=      5-min Rain = 0
KBO1 140608Z 14016KT M03/M03 A3022 RMK A01 T10271034  RH  095%=      5-min Rain = 0
KBO1 140609Z 15017KT M03/M04 A3022 RMK A01 T10271035  RH  095%=      5-min Rain = 0
KBO1 140610Z 15017KT M03/M03 A3022 RMK A01 T10271034  RH  095%=      5-min Rain = 0
KBO1 140611Z 15015KT M03/M03 A3022 RMK A01 T10271034  RH  095%=      5-min Rain = 0
KBO1 140612Z 15014KT M03/M03 A3022 RMK A01 T10271034  RH  095%=      5-min Rain = 0
KBO1 140613Z 15015KT M03/M04 A3022 RMK A01 T10281035  RH  095%=      5-min Rain = 0
KBO1 140614Z 15015KT M03/M03 A3022 RMK A01 T10271034  RH  095%=      5-min Rain = 0
KBO1 140615Z 15015KT M03/M03 A3022 RMK A01 T10271034  RH  095%=      5-min Rain = 0
KBO1 140616Z 15015KT M03/M03 A3022 RMK A01 T10281034  RH  095%=      5-min Rain = 0
KBO1 140617Z 15014KT M03/M03 A3022 RMK A01 T10271034  RH  095%=      5-min Rain = 0
KBO1 140618Z 15015KT M03/M03 A3022 RMK A01 T10281034  RH  096%=      5-min Rain = 0
KBO1 140619Z 15015KT M03/M03 A3022 RMK A01 T10281034  RH  096%=      5-min Rain = 0
KBO1 140620Z 15015KT M03/M03 A3022 RMK A01 T10271034  RH  096%=      5-min Rain = 0
KBO1 140621Z 15016KT M03/M03 A3022 RMK A01 T10271034  RH  096%=      5-min Rain = 0
KBO1 140622Z 15017KT M03/M03 A3022 RMK A01 T10281034  RH  096%=      5-min Rain = 0
KBO1 140623Z 15017KT M03/M03 A3022 RMK A01 T10281034  RH  095%=      5-min Rain = 0
KBO1 140624Z 15017KT M03/M03 A3022 RMK A01 T10281034  RH  095%=      5-min Rain = 0
KBO1 140625Z 15016KT M03/M04 A3022 RMK A01 T10291035  RH  095%=      5-min Rain = 0
KBO1 140626Z 15016KT M03/M04 A3022 RMK A01 T10291035  RH  095%=      5-min Rain = 0
KBO1 140627Z 15016KT M03/M04 A3022 RMK A01 T10291035  RH  096%=      5-min Rain = 0
KBO1 140628Z 15016KT M03/M04 A3022 RMK A01 T10291035  RH  096%=      5-min Rain = 0
KBO1 140629Z 15017KT M03/M04 A3022 RMK A01 T10291035  RH  096%=      5-min Rain = 0
KBO1 140630Z 15016KT M03/M04 A3022 RMK A01 T10291035  RH  096%=      5-min Rain = 0
KBO1 140631Z 15015KT M03/M04 A3022 RMK A01 T10291035  RH  096%=      5-min Rain = 0
KBO1 140632Z 15014KT M03/M03 A3022 RMK A01 T10291034  RH  096%=      5-min Rain = 0
KBO1 140633Z 15014KT M03/M04 A3022 RMK A01 T10291035  RH  096%=      5-min Rain = 0
KBO1 140634Z 14012KT M03/M04 A3022 RMK A01 T10291035  RH  096%=      5-min Rain = 0
KBO1 140635Z 15015KT M03/M03 A3022 RMK A01 T10291034  RH  096%=      5-min Rain = 0
KBO1 140636Z 15016KT M03/M04 A3022 RMK A01 T10301035  RH  096%=      5-min Rain = 0
KBO1 140637Z 14015KT M03/M04 A3022 RMK A01 T10301036  RH  096%=      5-min Rain = 0
KBO1 140638Z 15016KT M03/M04 A3022 RMK A01 T10311037  RH  096%=      5-min Rain = 0
KBO1 140639Z 15015KT M03/M04 A3022 RMK A01 T10311037  RH  096%=      5-min Rain = 0
KBO1 140640Z 15015KT M03/M04 A3022 RMK A01 T10311037  RH  096%=      5-min Rain = 0
KBO1 140641Z 14015KT M03/M04 A3022 RMK A01 T10311037  RH  096%=      5-min Rain = 0
KBO1 140642Z 15013KT M03/M04 A3022 RMK A01 T10311037  RH  096%=      5-min Rain = 0
KBO1 140643Z 15016KT M03/M04 A3022 RMK A01 T10321038  RH  096%=      5-min Rain = 0
KBO1 140644Z 15015KT M03/M04 A3022 RMK A01 T10321038  RH  096%=      5-min Rain = 0
KBO1 140645Z 15015KT M03/M04 A3022 RMK A01 T10321037  RH  096%=      5-min Rain = 0
KBO1 140646Z 15014KT M03/M04 A3022 RMK A01 T10321037  RH  096%=      5-min Rain = 0
KBO1 140647Z 15017KT M03/M04 A3022 RMK A01 T10321037  RH  096%=      5-min Rain = 0
KBO1 140648Z 15015KT M03/M04 A3022 RMK A01 T10321037  RH  096%=      5-min Rain = 0
KBO1 140649Z 15016KT M03/M04 A3022 RMK A01 T10321037  RH  096%=      5-min Rain = 0
KBO1 140650Z 15017KT M03/M04 A3022 RMK A01 T10321037  RH  096%=      5-min Rain = 0
KBO1 140651Z 15016KT M03/M04 A3022 RMK A01 T10321037  RH  096%=      5-min Rain = 0
KBO1 140652Z 15015KT M03/M04 A3022 RMK A01 T10321037  RH  096%=      5-min Rain = 0
KBO1 140653Z 15015KT M03/M04 A3022 RMK A01 T10321037  RH  097%=      5-min Rain = 0
KBO1 140654Z 15013KT M03/M04 A3022 RMK A01 T10321036  RH  097%=      5-min Rain = 0
KBO1 140655Z 15014KT M03/M04 A3022 RMK A01 T10321037  RH  097%=      5-min Rain = 0
KBO1 140656Z 15013KT M03/M04 A3022 RMK A01 T10321036  RH  097%=      5-min Rain = 0
KBO1 140657Z 14014KT M03/M04 A3022 RMK A01 T10321036  RH  097%=      5-min Rain = 0
KBO1 140658Z 15013KT M03/M04 A3022 RMK A01 T10321036  RH  097%=      5-min Rain = 0
KBO1 140659Z 15014KT M03/M04 A3022 RMK A01 T10321036  RH  097%=      5-min Rain = 0
KBO1 140700Z 14013KT M03/M04 A3022 RMK A01 T10321036  RH  097%=      5-min Rain = 0
KBO1 140701Z 15015KT M03/M04 A3022 RMK A01 T10321036  RH  097%=      5-min Rain = 0
KBO1 140702Z 15015KT M03/M04 A3022 RMK A01 T10331036  RH  097%=      5-min Rain = 0
KBO1 140703Z 14013KT M03/M04 A3022 RMK A01 T10331037  RH  097%=      5-min Rain = 0
KBO1 140704Z 14014KT M03/M04 A3022 RMK A01 T10321036  RH  097%=      5-min Rain = 0
KBO1 140705Z 14016KT M03/M04 A3022 RMK A01 T10321036  RH  098%=      5-min Rain = 0
KBO1 140706Z 14015KT M03/M04 A3022 RMK A01 T10321036  RH  098%=      5-min Rain = 0
KBO1 140707Z 14013KT M03/M04 A3022 RMK A01 T10331036  RH  098%=      5-min Rain = 0
KBO1 140708Z 15014KT M03/M04 A3022 RMK A01 T10331036  RH  098%=      5-min Rain = 0
KBO1 140709Z 15011KT M03/M04 A3022 RMK A01 T10331035  RH  098%=      5-min Rain = 0
KBO1 140710Z 15013KT M03/M04 A3022 RMK A01 T10321035  RH  098%=      5-min Rain = 0
KBO1 140711Z 15013KT M03/M04 A3022 RMK A01 T10321035  RH  098%=      5-min Rain = 0
KBO1 140712Z 14012KT M03/M04 A3022 RMK A01 T10331035  RH  098%=      5-min Rain = 0
KBO1 140713Z 15010KT M03/M04 A3022 RMK A01 T10331035  RH  098%=      5-min Rain = 0
KBO1 140714Z 15013KT M03/M04 A3022 RMK A01 T10331035  RH  099%=      5-min Rain = 0
KBO1 140715Z 15013KT M03/M03 A3022 RMK A01 T10321034  RH  099%=      5-min Rain = 0
KBO1 140716Z 15012KT M03/M03 A3022 RMK A01 T10321034  RH  099%=      5-min Rain = 0
KBO1 140717Z 14014KT M03/M03 A3022 RMK A01 T10321033  RH  099%=      5-min Rain = 0
KBO1 140718Z 14014KT M03/M03 A3022 RMK A01 T10321033  RH  099%=      5-min Rain = 0
KBO1 140719Z 14013KT M03/M03 A3022 RMK A01 T10321033  RH  099%=      5-min Rain = 0
KBO1 140720Z 15012KT M03/M03 A3022 RMK A01 T10321033  RH  100%=      5-min Rain = 0
KBO1 140721Z 14013KT M03/M03 A3022 RMK A01 T10321032  RH  100%=      5-min Rain = 0
KBO1 140722Z 15011KT M03/M03 A3022 RMK A01 T10311031  RH  100%=      5-min Rain = 0
KBO1 140723Z 15012KT M03/M03 A3022 RMK A01 T10311032  RH  100%=      5-min Rain = 0
KBO1 140724Z 15013KT M03/M03 A3022 RMK A01 T10311031  RH  100%=      5-min Rain = 0
KBO1 140725Z 15011KT M03/M03 A3022 RMK A01 T10311031  RH  100%=      5-min Rain = 0
KBO1 140726Z 14012KT M03/M03 A3022 RMK A01 T10311031  RH  100%=      5-min Rain = 0
KBO1 140727Z 14012KT M03/M03 A3022 RMK A01 T10311031  RH  100%=      5-min Rain = 0
KBO1 140728Z 14012KT M03/M03 A3022 RMK A01 T10311031  RH  100%=      5-min Rain = 0
KBO1 140729Z 15012KT M03/M03 A3022 RMK A01 T10311031  RH  100%=      5-min Rain = 0
KBO1 140730Z 15015KT M03/M03 A3022 RMK A01 T10311031  RH  100%=      5-min Rain = 0
KBO1 140731Z 15014KT M03/M03 A3022 RMK A01 T10311031  RH  100%=      5-min Rain = 0
KBO1 140732Z 15013KT M03/M03 A3022 RMK A01 T10311031  RH  100%=      5-min Rain = 0
KBO1 140733Z 14013KT M03/M03 A3022 RMK A01 T10311031  RH  100%=      5-min Rain = 0
KBO1 140734Z 14014KT M03/M03 A3022 RMK A01 T10311031  RH  100%=      5-min Rain = 0
KBO1 140735Z 14013KT M03/M03 A3022 RMK A01 T10321032  RH  100%=      5-min Rain = 0
KBO1 140736Z 15011KT M03/M03 A3022 RMK A01 T10331033  RH  100%=      5-min Rain = 0
KBO1 140737Z 15011KT M03/M03 A3022 RMK A01 T10321032  RH  100%=      5-min Rain = 0
KBO1 140738Z 15015KT M03/M03 A3022 RMK A01 T10321032  RH  100%=      5-min Rain = 0
KBO1 140739Z 15016KT M03/M03 A3022 RMK A01 T10321032  RH  100%=      5-min Rain = 0
KBO1 140740Z 16015KT M03/M03 A3022 RMK A01 T10321032  RH  100%=      5-min Rain = 0
KBO1 140741Z 15015KT M03/M03 A3022 RMK A01 T10321032  RH  100%=      5-min Rain = 0
KBO1 140742Z 16016KT M03/M03 A3022 RMK A01 T10321032  RH  100%=      5-min Rain = 0
KBO1 140743Z 15015KT M03/M03 A3022 RMK A01 T10321032  RH  100%=      5-min Rain = 0
KBO1 140744Z 15012KT M03/M03 A3022 RMK A01 T10321032  RH  100%=      5-min Rain = 0
KBO1 140745Z 15015KT M03/M03 A3023 RMK A01 T10321032  RH  100%=      5-min Rain = 0
KBO1 140746Z 15015KT M03/M03 A3023 RMK A01 T10321032  RH  100%=      5-min Rain = 0
KBO1 140747Z 15015KT M03/M03 A3023 RMK A01 T10321032  RH  100%=      5-min Rain = 0
KBO1 140748Z 15016KT M03/M03 A3023 RMK A01 T10321032  RH  100%=      5-min Rain = 0
KBO1 140749Z 14014KT M03/M03 A3023 RMK A01 T10321032  RH  100%=      5-min Rain = 0
KBO1 140750Z 15015KT M03/M03 A3023 RMK A01 T10331033  RH  100%=      5-min Rain = 0
KBO1 140751Z 15014KT M03/M03 A3022 RMK A01 T10331033  RH  100%=      5-min Rain = 0
KBO1 140752Z 15014KT M03/M03 A3022 RMK A01 T10331033  RH  100%=      5-min Rain = 0
KBO1 140753Z 15014KT M03/M03 A3023 RMK A01 T10321033  RH  100%=      5-min Rain = 0
KBO1 140754Z 15015KT M03/M03 A3023 RMK A01 T10321032  RH  100%=      5-min Rain = 0
KBO1 140755Z 15015KT M03/M03 A3023 RMK A01 T10321033  RH  100%=      5-min Rain = 0
KBO1 140756Z 15015KT M03/M03 A3023 RMK A01 T10321032  RH  100%=      5-min Rain = 0
KBO1 140757Z 14015KT M03/M03 A3023 RMK A01 T10331033  RH  100%=      5-min Rain = 0
KBO1 140758Z 15014KT M03/M03 A3023 RMK A01 T10321033  RH  100%=      5-min Rain = 0
KBO1 140759Z 15010KT M03/M03 A3023 RMK A01 T10331033  RH  100%=      5-min Rain = 0
KBO1 140800Z 15011KT M03/M03 A3023 RMK A01 T10321033  RH  100%=      5-min Rain = 0
KBO1 140801Z 15011KT M03/M03 A3023 RMK A01 T10321032  RH  100%=      5-min Rain = 0
KBO1 140802Z 15013KT M03/M03 A3023 RMK A01 T10321032  RH  100%=      5-min Rain = 0
KBO1 140803Z 14014KT M03/M03 A3023 RMK A01 T10311031  RH  100%=      5-min Rain = 0
KBO1 140804Z 14013KT M03/M03 A3023 RMK A01 T10321032  RH  100%=      5-min Rain = 0
KBO1 140805Z 14013KT M03/M03 A3023 RMK A01 T10321032  RH  100%=      5-min Rain = 0
KBO1 140806Z 15013KT M03/M03 A3023 RMK A01 T10321032  RH  100%=      5-min Rain = 0
KBO1 140807Z 15014KT M03/M03 A3023 RMK A01 T10321032  RH  100%=      5-min Rain = 0
KBO1 140808Z 15012KT M03/M03 A3023 RMK A01 T10321032  RH  100%=      5-min Rain = 0
KBO1 140809Z 15011KT M03/M03 A3023 RMK A01 T10321032  RH  100%=      5-min Rain = 0
KBO1 140810Z 15012KT M03/M03 A3023 RMK A01 T10321032  RH  100%=      5-min Rain = 0
KBO1 140811Z 15013KT M03/M03 A3023 RMK A01 T10321032  RH  100%=      5-min Rain = 0
KBO1 140812Z 15012KT M03/M03 A3023 RMK A01 T10311031  RH  100%=      5-min Rain = 0
KBO1 140813Z 15012KT M03/M03 A3023 RMK A01 T10311031  RH  100%=      5-min Rain = 0
KBO1 140814Z 16015KT M03/M03 A3023 RMK A01 T10311031  RH  100%=      5-min Rain = 0
KBO1 140815Z 15014KT M03/M03 A3023 RMK A01 T10311031  RH  100%=      5-min Rain = 0
KBO1 140816Z 16016KT M03/M03 A3023 RMK A01 T10311031  RH  100%=      5-min Rain = 0
KBO1 140817Z 16012KT M03/M03 A3023 RMK A01 T10311031  RH  100%=      5-min Rain = 0
KBO1 140818Z 16013KT M03/M03 A3023 RMK A01 T10301030  RH  100%=      5-min Rain = 0
KBO1 140819Z 16013KT M03/M03 A3023 RMK A01 T10301030  RH  100%=      5-min Rain = 0
KBO1 140820Z 16013KT M03/M03 A3023 RMK A01 T10301030  RH  100%=      5-min Rain = 0
KBO1 140821Z 16012KT M03/M03 A3023 RMK A01 T10291030  RH  100%=      5-min Rain = 0
KBO1 140822Z 15013KT M03/M03 A3023 RMK A01 T10291029  RH  100%=      5-min Rain = 0
KBO1 140823Z 15012KT M03/M03 A3023 RMK A01 T10291029  RH  100%=      5-min Rain = 0
KBO1 140824Z 15013KT M03/M03 A3023 RMK A01 T10291030  RH  100%=      5-min Rain = 0
KBO1 140825Z 15012KT M03/M03 A3022 RMK A01 T10291029  RH  100%=      5-min Rain = 0
KBO1 140826Z 15016KT M03/M03 A3022 RMK A01 T10291029  RH  100%=      5-min Rain = 0
KBO1 140827Z 16012KT M03/M03 A3022 RMK A01 T10291029  RH  100%=      5-min Rain = 0
KBO1 140828Z 16013KT M03/M03 A3022 RMK A01 T10291029  RH  100%=      5-min Rain = 0
KBO1 140829Z 14012KT M03/M03 A3022 RMK A01 T10291029  RH  100%=      5-min Rain = 0
KBO1 140830Z 15014KT M03/M03 A3022 RMK A01 T10291030  RH  100%=      5-min Rain = 0
KBO1 140831Z 15014KT M03/M03 A3022 RMK A01 T10301030  RH  100%=      5-min Rain = 0
KBO1 140832Z 15014KT M03/M03 A3022 RMK A01 T10301030  RH  100%=      5-min Rain = 0
KBO1 140833Z 15012KT M03/M03 A3022 RMK A01 T10301030  RH  100%=      5-min Rain = 0
KBO1 140834Z 15012KT M03/M03 A3023 RMK A01 T10301030  RH  100%=      5-min Rain = 0
KBO1 140835Z 16013KT M03/M03 A3022 RMK A01 T10291030  RH  100%=      5-min Rain = 0
KBO1 140836Z 16013KT M03/M03 A3022 RMK A01 T10291029  RH  100%=      5-min Rain = 0
KBO1 140837Z 16014KT M03/M03 A3022 RMK A01 T10291029  RH  100%=      5-min Rain = 0
KBO1 140838Z 16015KT M03/M03 A3022 RMK A01 T10291029  RH  100%=      5-min Rain = 0
KBO1 140839Z 16016KT M03/M03 A3022 RMK A01 T10291029  RH  100%=      5-min Rain = 0
KBO1 140840Z 16014KT M03/M03 A3022 RMK A01 T10291029  RH  100%=      5-min Rain = 0
KBO1 140841Z 16013KT M03/M03 A3022 RMK A01 T10291029  RH  100%=      5-min Rain = 0
KBO1 140842Z 16013KT M03/M03 A3022 RMK A01 T10291030  RH  100%=      5-min Rain = 0
KBO1 140843Z 16013KT M03/M03 A3022 RMK A01 T10291029  RH  100%=      5-min Rain = 0
KBO1 140844Z 16014KT M03/M03 A3022 RMK A01 T10291029  RH  100%=      5-min Rain = 0
KBO1 140845Z 16013KT M03/M03 A3022 RMK A01 T10291029  RH  100%=      5-min Rain = 0
KBO1 140846Z 16012KT M03/M03 A3022 RMK A01 T10291029  RH  100%=      5-min Rain = 0
KBO1 140847Z 16013KT M03/M03 A3022 RMK A01 T10291029  RH  100%=      5-min Rain = 0
KBO1 140848Z 15013KT M03/M03 A3022 RMK A01 T10291029  RH  100%=      5-min Rain = 0
KBO1 140849Z 16011KT M03/M03 A3023 RMK A01 T10291029  RH  100%=      5-min Rain = 0
KBO1 140850Z 15011KT M03/M03 A3023 RMK A01 T10291029  RH  100%=      5-min Rain = 0
KBO1 140851Z 15011KT M03/M03 A3023 RMK A01 T10291029  RH  100%=      5-min Rain = 0
KBO1 140852Z 15013KT M03/M03 A3022 RMK A01 T10291029  RH  100%=      5-min Rain = 0
KBO1 140853Z 16013KT M03/M03 A3023 RMK A01 T10291029  RH  100%=      5-min Rain = 0
KBO1 140854Z 16012KT M03/M03 A3023 RMK A01 T10291029  RH  100%=      5-min Rain = 0
KBO1 140855Z 16012KT M03/M03 A3022 RMK A01 T10281029  RH  100%=      5-min Rain = 0
KBO1 140856Z 15012KT M03/M03 A3022 RMK A01 T10281028  RH  100%=      5-min Rain = 0
KBO1 140857Z 16012KT M03/M03 A3022 RMK A01 T10281029  RH  100%=      5-min Rain = 0
KBO1 140858Z 15010KT M03/M03 A3022 RMK A01 T10281028  RH  100%=      5-min Rain = 0
KBO1 140859Z 16012KT M03/M03 A3022 RMK A01 T10281029  RH  100%=      5-min Rain = 0
KBO1 140900Z 16012KT M03/M03 A3022 RMK A01 T10291029  RH  100%=      5-min Rain = 0
KBO1 140901Z 17013KT M03/M03 A3022 RMK A01 T10281028  RH  100%=      5-min Rain = 0
KBO1 140902Z 16013KT M03/M03 A3022 RMK A01 T10281028  RH  100%=      5-min Rain = 0
KBO1 140903Z 17013KT M03/M03 A3022 RMK A01 T10281028  RH  100%=      5-min Rain = 0
KBO1 140904Z 17016KT M03/M03 A3022 RMK A01 T10271027  RH  100%=      5-min Rain = 0
KBO1 140905Z 17016KT M03/M03 A3022 RMK A01 T10261026  RH  100%=      5-min Rain = 0
KBO1 140906Z 17016KT M03/M03 A3022 RMK A01 T10261026  RH  100%=      5-min Rain = 0
KBO1 140907Z 16016KT M03/M03 A3022 RMK A01 T10271027  RH  100%=      5-min Rain = 0
KBO1 140908Z 16017KT M03/M03 A3022 RMK A01 T10271027  RH  100%=      5-min Rain = 0
KBO1 140909Z 16014KT M03/M03 A3022 RMK A01 T10271027  RH  100%=      5-min Rain = 0
KBO1 140910Z 17013G18KT M03/M03 A3022 RMK A01 T10271027  RH  100%=      5-min Rain = 0
KBO1 140911Z 16016KT M03/M03 A3022 RMK A01 T10271027  RH  100%=      5-min Rain = 0
KBO1 140912Z 16015KT M03/M03 A3022 RMK A01 T10271027  RH  100%=      5-min Rain = 0
KBO1 140913Z 16013KT M03/M03 A3022 RMK A01 T10271027  RH  100%=      5-min Rain = 0
KBO1 140914Z 17015KT M03/M03 A3022 RMK A01 T10271027  RH  100%=      5-min Rain = 0
KBO1 140915Z 16014KT M03/M03 A3022 RMK A01 T10271027  RH  100%=      5-min Rain = 0
KBO1 140916Z 17015KT M03/M03 A3022 RMK A01 T10271027  RH  100%=      5-min Rain = 0
KBO1 140917Z 16015KT M03/M03 A3022 RMK A01 T10271027  RH  100%=      5-min Rain = 0
KBO1 140918Z 17016KT M03/M03 A3022 RMK A01 T10271027  RH  100%=      5-min Rain = 0
KBO1 140919Z 17017KT M03/M03 A3022 RMK A01 T10271027  RH  100%=      5-min Rain = 0
KBO1 140920Z 17015KT M03/M03 A3022 RMK A01 T10271027  RH  100%=      5-min Rain = 0
KBO1 140921Z 17017KT M03/M03 A3022 RMK A01 T10281028  RH  100%=      5-min Rain = 0
KBO1 140922Z 17017KT M03/M03 A3022 RMK A01 T10281028  RH  100%=      5-min Rain = 0
KBO1 140923Z 17016KT M03/M03 A3022 RMK A01 T10281028  RH  100%=      5-min Rain = 0
KBO1 140924Z 17015KT M03/M03 A3022 RMK A01 T10281028  RH  100%=      5-min Rain = 0
KBO1 140925Z 17014KT M03/M03 A3022 RMK A01 T10281029  RH  100%=      5-min Rain = 0
KBO1 140926Z 17016G21KT M03/M03 A3022 RMK A01 T10281028  RH  100%=      5-min Rain = 0
KBO1 140927Z 17017KT M03/M03 A3022 RMK A01 T10291029  RH  100%=      5-min Rain = 0
KBO1 140928Z 17017KT M03/M03 A3022 RMK A01 T10291029  RH  100%=      5-min Rain = 0
KBO1 140929Z 17015G20KT M03/M03 A3022 RMK A01 T10291029  RH  100%=      5-min Rain = 0
KBO1 140930Z 17017KT M03/M03 A3022 RMK A01 T10291030  RH  100%=      5-min Rain = 0
KBO1 140931Z 17016KT M03/M03 A3022 RMK A01 T10301030  RH  100%=      5-min Rain = 0
KBO1 140932Z 17017KT M03/M03 A3022 RMK A01 T10291029  RH  100%=      5-min Rain = 0
KBO1 140933Z 17016KT M03/M03 A3022 RMK A01 T10301030  RH  100%=      5-min Rain = 0
KBO1 140934Z 17015KT M03/M03 A3022 RMK A01 T10301030  RH  100%=      5-min Rain = 0
KBO1 140935Z 17017KT M03/M03 A3022 RMK A01 T10301030  RH  100%=      5-min Rain = 0
KBO1 140936Z 17015KT M03/M03 A3022 RMK A01 T10301030  RH  100%=      5-min Rain = 0
KBO1 140937Z 17015G20KT M03/M03 A3022 RMK A01 T10291030  RH  100%=      5-min Rain = 0
KBO1 140938Z 17017KT M03/M03 A3022 RMK A01 T10291030  RH  100%=      5-min Rain = 0
KBO1 140939Z 17016KT M03/M03 A3022 RMK A01 T10291029  RH  100%=      5-min Rain = 0
KBO1 140940Z 17017KT M03/M03 A3022 RMK A01 T10301030  RH  100%=      5-min Rain = 0
KBO1 140941Z 17019KT M03/M03 A3022 RMK A01 T10301030  RH  100%=      5-min Rain = 0
KBO1 140942Z 17016KT M03/M03 A3022 RMK A01 T10301030  RH  100%=      5-min Rain = 0
KBO1 140943Z 17015KT M03/M03 A3022 RMK A01 T10301030  RH  100%=      5-min Rain = 0
KBO1 140944Z 17015KT M03/M03 A3022 RMK A01 T10301030  RH  100%=      5-min Rain = 0
KBO1 140945Z 18015KT M03/M03 A3022 RMK A01 T10301030  RH  100%=      5-min Rain = 0
KBO1 140946Z 17017KT M03/M03 A3022 RMK A01 T10301030  RH  100%=      5-min Rain = 0
KBO1 140947Z 17014KT M03/M03 A3022 RMK A01 T10301030  RH  100%=      5-min Rain = 0
KBO1 140948Z 17015KT M03/M03 A3022 RMK A01 T10301030  RH  100%=      5-min Rain = 0
KBO1 140949Z 17015KT M03/M03 A3022 RMK A01 T10301030  RH  100%=      5-min Rain = 0
KBO1 140950Z 17015KT M03/M03 A3022 RMK A01 T10301031  RH  100%=      5-min Rain = 0
KBO1 140951Z 17013KT M03/M03 A3022 RMK A01 T10301031  RH  100%=      5-min Rain = 0
KBO1 140952Z 16016KT M03/M03 A3022 RMK A01 T10301030  RH  100%=      5-min Rain = 0
KBO1 140953Z 17016KT M03/M03 A3022 RMK A01 T10301030  RH  100%=      5-min Rain = 0
KBO1 140954Z 17016KT M03/M03 A3022 RMK A01 T10301030  RH  100%=      5-min Rain = 0
KBO1 140955Z 17016KT M03/M03 A3022 RMK A01 T10301030  RH  100%=      5-min Rain = 0
KBO1 140956Z 17016KT M03/M03 A3022 RMK A01 T10301031  RH  100%=      5-min Rain = 0
KBO1 140957Z 16015KT M03/M03 A3022 RMK A01 T10311031  RH  100%=      5-min Rain = 0
KBO1 140958Z 16014KT M03/M03 A3022 RMK A01 T10311031  RH  100%=      5-min Rain = 0
KBO1 140959Z 17015KT M03/M03 A3022 RMK A01 T10311031  RH  100%=      5-min Rain = 0
KBO1 141000Z 17013KT M03/M03 A3022 RMK A01 T10311031  RH  100%=      5-min Rain = 0
KBO1 141001Z 17016G21KT M03/M03 A3022 RMK A01 T10311031  RH  100%=      5-min Rain = 0
KBO1 141002Z 17016KT M03/M03 A3022 RMK A01 T10311031  RH  100%=      5-min Rain = 0
KBO1 141003Z 17013KT M03/M03 A3022 RMK A01 T10311031  RH  100%=      5-min Rain = 0
KBO1 141004Z 17016KT M03/M03 A3022 RMK A01 T10311031  RH  100%=      5-min Rain = 0
KBO1 141005Z 17016KT M03/M03 A3022 RMK A01 T10311031  RH  100%=      5-min Rain = 0
KBO1 141006Z 17017KT M03/M03 A3022 RMK A01 T10311031  RH  100%=      5-min Rain = 0
KBO1 141007Z 17016KT M03/M03 A3022 RMK A01 T10311031  RH  100%=      5-min Rain = 0
KBO1 141008Z 17014KT M03/M03 A3022 RMK A01 T10311031  RH  100%=      5-min Rain = 0
KBO1 141009Z 17014KT M03/M03 A3022 RMK A01 T10311031  RH  100%=      5-min Rain = 0
KBO1 141010Z 17014G19KT M03/M03 A3022 RMK A01 T10311031  RH  100%=      5-min Rain = 0
KBO1 141011Z 17018KT M03/M03 A3022 RMK A01 T10311031  RH  100%=      5-min Rain = 0
KBO1 141012Z 17014KT M03/M03 A3022 RMK A01 T10311031  RH  100%=      5-min Rain = 0
KBO1 141013Z 17014KT M03/M03 A3022 RMK A01 T10311031  RH  100%=      5-min Rain = 0
KBO1 141014Z 17015KT M03/M03 A3021 RMK A01 T10311031  RH  100%=      5-min Rain = 0
KBO1 141015Z 17014KT M03/M03 A3022 RMK A01 T10311031  RH  100%=      5-min Rain = 0
KBO1 141016Z 17015KT M03/M03 A3021 RMK A01 T10311031  RH  100%=      5-min Rain = 0
KBO1 141017Z 17014G19KT M03/M03 A3021 RMK A01 T10311031  RH  100%=      5-min Rain = 0
KBO1 141018Z 17015KT M03/M03 A3021 RMK A01 T10311031  RH  100%=      5-min Rain = 0
KBO1 141019Z 17014KT M03/M03 A3021 RMK A01 T10311031  RH  100%=      5-min Rain = 0
KBO1 141020Z 17017KT M03/M03 A3021 RMK A01 T10311031  RH  100%=      5-min Rain = 0
KBO1 141021Z 17014KT M03/M03 A3021 RMK A01 T10311031  RH  100%=      5-min Rain = 0
KBO1 141022Z 17013KT M03/M03 A3021 RMK A01 T10311031  RH  100%=      5-min Rain = 0
KBO1 141023Z 17013KT M03/M03 A3021 RMK A01 T10311031  RH  100%=      5-min Rain = 0
KBO1 141024Z 17015KT M03/M03 A3021 RMK A01 T10301031  RH  100%=      5-min Rain = 0
KBO1 141025Z 17012KT M03/M03 A3021 RMK A01 T10311031  RH  100%=      5-min Rain = 0
KBO1 141026Z 17012KT M03/M03 A3021 RMK A01 T10301031  RH  100%=      5-min Rain = 0
KBO1 141027Z 17012KT M03/M03 A3021 RMK A01 T10311031  RH  100%=      5-min Rain = 0
KBO1 141028Z 17013G18KT M03/M03 A3021 RMK A01 T10301030  RH  100%=      5-min Rain = 0
KBO1 141029Z 17017KT M03/M03 A3021 RMK A01 T10301030  RH  100%=      5-min Rain = 0
KBO1 141030Z 17015KT M03/M03 A3021 RMK A01 T10301031  RH  100%=      5-min Rain = 0
KBO1 141031Z 17012KT M03/M03 A3021 RMK A01 T10311031  RH  100%=      5-min Rain = 0
KBO1 141032Z 17014G19KT M03/M03 A3021 RMK A01 T10311031  RH  100%=      5-min Rain = 0
KBO1 141033Z 17012KT M03/M03 A3021 RMK A01 T10311031  RH  100%=      5-min Rain = 0
KBO1 141034Z 17012KT M03/M03 A3021 RMK A01 T10311031  RH  100%=      5-min Rain = 0
KBO1 141035Z 17014KT M03/M03 A3021 RMK A01 T10301030  RH  100%=      5-min Rain = 0
KBO1 141036Z 17015KT M03/M03 A3021 RMK A01 T10301030  RH  100%=      5-min Rain = 0
KBO1 141037Z 17014KT M03/M03 A3021 RMK A01 T10301030  RH  100%=      5-min Rain = 0
KBO1 141038Z 17011KT M03/M03 A3021 RMK A01 T10301030  RH  100%=      5-min Rain = 0
KBO1 141039Z 17012G17KT M03/M03 A3021 RMK A01 T10301030  RH  100%=      5-min Rain = 0
KBO1 141040Z 17014KT M03/M03 A3021 RMK A01 T10301030  RH  100%=      5-min Rain = 0
KBO1 141041Z 17015KT M03/M03 A3021 RMK A01 T10291030  RH  100%=      5-min Rain = 0
KBO1 141042Z 17014KT M03/M03 A3021 RMK A01 T10301030  RH  100%=      5-min Rain = 0
KBO1 141043Z 17013KT M03/M03 A302 RMK A01 T10301030  RH  100%=      5-min Rain = 0
KBO1 141044Z 17013KT M03/M03 A3021 RMK A01 T10291030  RH  100%=      5-min Rain = 0
KBO1 141045Z 18015KT M03/M03 A302 RMK A01 T10301030  RH  100%=      5-min Rain = 0
KBO1 141046Z 17015KT M03/M03 A302 RMK A01 T10301030  RH  100%=      5-min Rain = 0
KBO1 141047Z 18014KT M03/M03 A302 RMK A01 T10301030  RH  100%=      5-min Rain = 0
KBO1 141048Z 18015KT M03/M03 A302 RMK A01 T10291029  RH  100%=      5-min Rain = 0
KBO1 141049Z 17015KT M03/M03 A302 RMK A01 T10291029  RH  100%=      5-min Rain = 0
KBO1 141050Z 17015KT M03/M03 A302 RMK A01 T10291029  RH  100%=      5-min Rain = 0
KBO1 141051Z 17014KT M03/M03 A302 RMK A01 T10291029  RH  100%=      5-min Rain = 0
KBO1 141052Z 17014KT M03/M03 A302 RMK A01 T10291029  RH  100%=      5-min Rain = 0
KBO1 141053Z 17017KT M03/M03 A302 RMK A01 T10291029  RH  100%=      5-min Rain = 0
KBO1 141054Z 18016KT M03/M03 A302 RMK A01 T10291029  RH  100%=      5-min Rain = 0
KBO1 141055Z 18015KT M03/M03 A302 RMK A01 T10291029  RH  100%=      5-min Rain = 0
KBO1 141056Z 18016KT M03/M03 A302 RMK A01 T10291029  RH  100%=      5-min Rain = 0
KBO1 141057Z 18015KT M03/M03 A302 RMK A01 T10291029  RH  100%=      5-min Rain = 0
KBO1 141058Z 18016KT M03/M03 A302 RMK A01 T10291029  RH  100%=      5-min Rain = 0
KBO1 141059Z 17015KT M03/M03 A302 RMK A01 T10291029  RH  100%=      5-min Rain = 0
KBO1 141100Z 17014KT M03/M03 A302 RMK A01 T10291029  RH  100%=      5-min Rain = 0
KBO1 141101Z 18016KT M03/M03 A302 RMK A01 T10291029  RH  100%=      5-min Rain = 0
KBO1 141102Z 17016KT M03/M03 A302 RMK A01 T10291029  RH  100%=      5-min Rain = 0
KBO1 141103Z 17016KT M03/M03 A302 RMK A01 T10281028  RH  100%=      5-min Rain = 0
KBO1 141104Z 18017KT M03/M03 A302 RMK A01 T10281028  RH  100%=      5-min Rain = 0
KBO1 141105Z 18016KT M03/M03 A302 RMK A01 T10281028  RH  100%=      5-min Rain = 0
KBO1 141106Z 18015KT M03/M03 A302 RMK A01 T10281029  RH  100%=      5-min Rain = 0
KBO1 141107Z 17016KT M03/M03 A302 RMK A01 T10281029  RH  100%=      5-min Rain = 0
KBO1 141108Z 17015KT M03/M03 A302 RMK A01 T10281029  RH  100%=      5-min Rain = 0
KBO1 141109Z 17016KT M03/M03 A302 RMK A01 T10281028  RH  100%=      5-min Rain = 0
KBO1 141110Z 18017KT M03/M03 A302 RMK A01 T10281029  RH  100%=      5-min Rain = 0
KBO1 141111Z 18016KT M03/M03 A302 RMK A01 T10281028  RH  100%=      5-min Rain = 0
KBO1 141112Z 18016KT M03/M03 A302 RMK A01 T10281028  RH  100%=      5-min Rain = 0
KBO1 141113Z 17015KT M03/M03 A302 RMK A01 T10281028  RH  100%=      5-min Rain = 0
KBO1 141114Z 17018KT M03/M03 A302 RMK A01 T10281028  RH  100%=      5-min Rain = 0
KBO1 141115Z 17017KT M03/M03 A302 RMK A01 T10281028  RH  100%=      5-min Rain = 0
KBO1 141116Z 18016KT M03/M03 A302 RMK A01 T10281028  RH  100%=      5-min Rain = 0
KBO1 141117Z 17015KT M03/M03 A302 RMK A01 T10281028  RH  100%=      5-min Rain = 0
KBO1 141118Z 17017KT M03/M03 A302 RMK A01 T10281028  RH  100%=      5-min Rain = 0
KBO1 141119Z 18017KT M03/M03 A302 RMK A01 T10281028  RH  100%=      5-min Rain = 0
KBO1 141120Z 18015KT M03/M03 A302 RMK A01 T10281028  RH  100%=      5-min Rain = 0
KBO1 141121Z 18013KT M03/M03 A302 RMK A01 T10281028  RH  100%=      5-min Rain = 0
KBO1 141122Z 18013KT M03/M03 A302 RMK A01 T10281028  RH  100%=      5-min Rain = 0
KBO1 141123Z 18015KT M03/M03 A302 RMK A01 T10281028  RH  100%=      5-min Rain = 0
KBO1 141124Z 17016KT M03/M03 A302 RMK A01 T10271028  RH  100%=      5-min Rain = 0
KBO1 141125Z 18016KT M03/M03 A302 RMK A01 T10271027  RH  100%=      5-min Rain = 0
KBO1 141126Z 18017KT M03/M03 A302 RMK A01 T10281028  RH  100%=      5-min Rain = 0
KBO1 141127Z 18013KT M03/M03 A302 RMK A01 T10281028  RH  100%=      5-min Rain = 0
KBO1 141128Z 18015G20KT M03/M03 A302 RMK A01 T10281028  RH  100%=      5-min Rain = 0
KBO1 141129Z 17016KT M03/M03 A302 RMK A01 T10281028  RH  100%=      5-min Rain = 0
KBO1 141130Z 17016KT M03/M03 A302 RMK A01 T10281028  RH  100%=      5-min Rain = 0
KBO1 141131Z 17016KT M03/M03 A302 RMK A01 T10281028  RH  100%=      5-min Rain = 0
KBO1 141132Z 17015G20KT M03/M03 A302 RMK A01 T10281028  RH  100%=      5-min Rain = 0
KBO1 141133Z 18016KT M03/M03 A302 RMK A01 T10281028  RH  100%=      5-min Rain = 0
KBO1 141134Z 18014KT M03/M03 A302 RMK A01 T10281028  RH  100%=      5-min Rain = 0
KBO1 141135Z 17013KT M03/M03 A302 RMK A01 T10281028  RH  100%=      5-min Rain = 0
KBO1 141136Z 17013KT M03/M03 A302 RMK A01 T10281028  RH  100%=      5-min Rain = 0
KBO1 141137Z 17015KT M03/M03 A302 RMK A01 T10271027  RH  100%=      5-min Rain = 0
KBO1 141138Z 17014KT M03/M03 A302 RMK A01 T10271028  RH  100%=      5-min Rain = 0
KBO1 141139Z 18015KT M03/M03 A302 RMK A01 T10271027  RH  100%=      5-min Rain = 0
KBO1 141140Z 17013KT M03/M03 A302 RMK A01 T10281028  RH  100%=      5-min Rain = 0
KBO1 141141Z 17013KT M03/M03 A302 RMK A01 T10271027  RH  100%=      5-min Rain = 0
KBO1 141142Z 18014KT M03/M03 A302 RMK A01 T10281028  RH  100%=      5-min Rain = 0
KBO1 141143Z 18017KT M03/M03 A302 RMK A01 T10281028  RH  100%=      5-min Rain = 0
KBO1 141144Z 18017KT M03/M03 A302 RMK A01 T10271027  RH  100%=      5-min Rain = 0
KBO1 141145Z 18018KT M03/M03 A302 RMK A01 T10271028  RH  100%=      5-min Rain = 0
KBO1 141146Z 18015KT M03/M03 A302 RMK A01 T10281028  RH  100%=      5-min Rain = 0
KBO1 141147Z 18015KT M03/M03 A302 RMK A01 T10281028  RH  100%=      5-min Rain = 0
KBO1 141148Z 18014KT M03/M03 A302 RMK A01 T10281028  RH  100%=      5-min Rain = 0
KBO1 141149Z 18015KT M03/M03 A302 RMK A01 T10281029  RH  100%=      5-min Rain = 0
KBO1 141150Z 18015KT M03/M03 A302 RMK A01 T10291029  RH  100%=      5-min Rain = 0
KBO1 141151Z 18013KT M03/M03 A302 RMK A01 T10291029  RH  100%=      5-min Rain = 0
KBO1 141152Z 18016KT M03/M03 A302 RMK A01 T10291029  RH  100%=      5-min Rain = 0
KBO1 141153Z 18015KT M03/M03 A302 RMK A01 T10291029  RH  100%=      5-min Rain = 0
KBO1 141154Z 18014KT M03/M03 A302 RMK A01 T10291029  RH  100%=      5-min Rain = 0
KBO1 141155Z 18013KT M03/M03 A302 RMK A01 T10291029  RH  100%=      5-min Rain = 0
KBO1 141156Z 18013KT M03/M03 A302 RMK A01 T10291029  RH  100%=      5-min Rain = 0
KBO1 141157Z 18012KT M03/M03 A302 RMK A01 T10291029  RH  100%=      5-min Rain = 0
KBO1 141158Z 18013KT M03/M03 A302 RMK A01 T10281028  RH  100%=      5-min Rain = 0
KBO1 141159Z 18013KT M03/M03 A302 RMK A01 T10281028  RH  100%=      5-min Rain = 0
KBO1 141200Z 18012KT M03/M03 A302 RMK A01 T10281028  RH  100%=      5-min Rain = 0
KBO1 141201Z 18015KT M03/M03 A302 RMK A01 T10281028  RH  100%=      5-min Rain = 0
KBO1 141202Z 18015KT M03/M03 A302 RMK A01 T10281028  RH  100%=      5-min Rain = 0
KBO1 141203Z 18015KT M03/M03 A302 RMK A01 T10281028  RH  100%=      5-min Rain = 0
KBO1 141204Z 19016KT M03/M03 A302 RMK A01 T10291029  RH  100%=      5-min Rain = 0
KBO1 141205Z 18014KT M03/M03 A302 RMK A01 T10291029  RH  100%=      5-min Rain = 0
KBO1 141206Z 18015KT M03/M03 A302 RMK A01 T10291029  RH  100%=      5-min Rain = 0
KBO1 141207Z 18017KT M03/M03 A302 RMK A01 T10291029  RH  100%=      5-min Rain = 0
KBO1 141208Z 18016KT M03/M03 A302 RMK A01 T10291029  RH  100%=      5-min Rain = 0
KBO1 141209Z 18014KT M03/M03 A302 RMK A01 T10291029  RH  100%=      5-min Rain = 0
KBO1 141210Z 18014KT M03/M03 A302 RMK A01 T10291029  RH  100%=      5-min Rain = 0
KBO1 141211Z 18016KT M03/M03 A302 RMK A01 T10291029  RH  100%=      5-min Rain = 0
KBO1 141212Z 18016KT M03/M03 A302 RMK A01 T10291029  RH  100%=      5-min Rain = 0
KBO1 141213Z 18015KT M03/M03 A302 RMK A01 T10291029  RH  100%=      5-min Rain = 0
KBO1 141214Z 18016KT M03/M03 A302 RMK A01 T10291029  RH  100%=      5-min Rain = 0
KBO1 141215Z 18015KT M03/M03 A302 RMK A01 T10291029  RH  100%=      5-min Rain = 0
KBO1 141216Z 18016KT M03/M03 A302 RMK A01 T10291029  RH  100%=      5-min Rain = 0
KBO1 141217Z 18015KT M03/M03 A302 RMK A01 T10291029  RH  100%=      5-min Rain = 0
KBO1 141218Z 18014KT M03/M03 A302 RMK A01 T10291029  RH  100%=      5-min Rain = 0
KBO1 141219Z 18014KT M03/M03 A302 RMK A01 T10291029  RH  100%=      5-min Rain = 0
KBO1 141220Z 18015KT M03/M03 A302 RMK A01 T10291029  RH  100%=      5-min Rain = 0
KBO1 141221Z 18015KT M03/M03 A302 RMK A01 T10291029  RH  100%=      5-min Rain = 0
KBO1 141222Z 18014KT M03/M03 A302 RMK A01 T10291029  RH  100%=      5-min Rain = 0
KBO1 141223Z 18014KT M03/M03 A302 RMK A01 T10291029  RH  100%=      5-min Rain = 0
KBO1 141224Z 18013KT M03/M03 A302 RMK A01 T10291029  RH  100%=      5-min Rain = 0
KBO1 141225Z 18014KT M03/M03 A302 RMK A01 T10291029  RH  100%=      5-min Rain = 0
KBO1 141226Z 17016KT M03/M03 A302 RMK A01 T10291029  RH  100%=      5-min Rain = 0
KBO1 141227Z 18014KT M03/M03 A302 RMK A01 T10291029  RH  100%=      5-min Rain = 0
KBO1 141228Z 18014KT M03/M03 A302 RMK A01 T10291029  RH  100%=      5-min Rain = 0
KBO1 141229Z 18013KT M03/M03 A3021 RMK A01 T10301030  RH  100%=      5-min Rain = 0
KBO1 141230Z 18015KT M03/M03 A302 RMK A01 T10301030  RH  100%=      5-min Rain = 0
KBO1 141231Z 18014KT M03/M03 A302 RMK A01 T10301030  RH  100%=      5-min Rain = 0
KBO1 141232Z 18014KT M03/M03 A302 RMK A01 T10301030  RH  100%=      5-min Rain = 0
KBO1 141233Z 18016KT M03/M03 A302 RMK A01 T10301030  RH  100%=      5-min Rain = 0
KBO1 141234Z 18017KT M03/M03 A302 RMK A01 T10301030  RH  100%=      5-min Rain = 0
KBO1 141235Z 19016KT M03/M03 A302 RMK A01 T10301030  RH  100%=      5-min Rain = 0
KBO1 141236Z 18015G20KT M03/M03 A302 RMK A01 T10301030  RH  100%=      5-min Rain = 0
KBO1 141237Z 18016KT M03/M03 A302 RMK A01 T10301030  RH  100%=      5-min Rain = 0
KBO1 141238Z 19013KT M03/M03 A302 RMK A01 T10301030  RH  100%=      5-min Rain = 0
KBO1 141239Z 18013KT M03/M03 A302 RMK A01 T10301030  RH  100%=      5-min Rain = 0
KBO1 141240Z 18014KT M03/M03 A302 RMK A01 T10301030  RH  100%=      5-min Rain = 0
KBO1 141241Z 18014KT M03/M03 A3021 RMK A01 T10301030  RH  100%=      5-min Rain = 0
KBO1 141242Z 18015KT M03/M03 A302 RMK A01 T10291029  RH  100%=      5-min Rain = 0
KBO1 141243Z 18013KT M03/M03 A3021 RMK A01 T10291029  RH  100%=      5-min Rain = 0
KBO1 141244Z 17014KT M03/M03 A3021 RMK A01 T10291029  RH  100%=      5-min Rain = 0
KBO1 141245Z 18016KT M03/M03 A3021 RMK A01 T10291029  RH  100%=      5-min Rain = 0
KBO1 141246Z 18013KT M03/M03 A3021 RMK A01 T10291029  RH  100%=      5-min Rain = 0
KBO1 141247Z 18014KT M03/M03 A3021 RMK A01 T10291029  RH  100%=      5-min Rain = 0
KBO1 141248Z 18017KT M03/M03 A3021 RMK A01 T10291029  RH  100%=      5-min Rain = 0
KBO1 141249Z 18015KT M03/M03 A3021 RMK A01 T10291030  RH  100%=      5-min Rain = 0
KBO1 141250Z 18016KT M03/M03 A3021 RMK A01 T10301030  RH  100%=      5-min Rain = 0
KBO1 141251Z 18016KT M03/M03 A3021 RMK A01 T10301030  RH  100%=      5-min Rain = 0
KBO1 141252Z 18014KT M03/M03 A3021 RMK A01 T10301030  RH  100%=      5-min Rain = 0
KBO1 141253Z 18016KT M03/M03 A3021 RMK A01 T10301030  RH  100%=      5-min Rain = 0
KBO1 141254Z 18016KT M03/M03 A3021 RMK A01 T10301030  RH  100%=      5-min Rain = 0
KBO1 141255Z 19015KT M03/M03 A3021 RMK A01 T10301030  RH  100%=      5-min Rain = 0
KBO1 141256Z 18014KT M03/M03 A3021 RMK A01 T10301030  RH  100%=      5-min Rain = 0
KBO1 141257Z 18015KT M03/M03 A3021 RMK A01 T10301030  RH  100%=      5-min Rain = 0
KBO1 141258Z 18015KT M03/M03 A3021 RMK A01 T10301030  RH  100%=      5-min Rain = 0
KBO1 141259Z 18014KT M03/M03 A3021 RMK A01 T10301030  RH  100%=      5-min Rain = 0
KBO1 141300Z 18013KT M03/M03 A3021 RMK A01 T10301030  RH  100%=      5-min Rain = 0
KBO1 141301Z 18015KT M03/M03 A3021 RMK A01 T10311031  RH  100%=      5-min Rain = 0
KBO1 141302Z 18014KT M03/M03 A3021 RMK A01 T10301030  RH  100%=      5-min Rain = 0
KBO1 141303Z 18015KT M03/M03 A3021 RMK A01 T10301030  RH  100%=      5-min Rain = 0
KBO1 141304Z 18015KT M03/M03 A3021 RMK A01 T10301030  RH  100%=      5-min Rain = 0
KBO1 141305Z 18015KT M03/M03 A3021 RMK A01 T10301030  RH  100%=      5-min Rain = 0
KBO1 141306Z 18015KT M03/M03 A3021 RMK A01 T10311031  RH  100%=      5-min Rain = 0
KBO1 141307Z 18014KT M03/M03 A3021 RMK A01 T10311031  RH  100%=      5-min Rain = 0
KBO1 141308Z 18012KT M03/M03 A3021 RMK A01 T10311031  RH  100%=      5-min Rain = 0
KBO1 141309Z 18014KT M03/M03 A3021 RMK A01 T10311031  RH  100%=      5-min Rain = 0
KBO1 141310Z 18014KT M03/M03 A3021 RMK A01 T10301030  RH  100%=      5-min Rain = 0
KBO1 141311Z 17014KT M03/M03 A3021 RMK A01 T10311031  RH  100%=      5-min Rain = 0
KBO1 141312Z 18015KT M03/M03 A3021 RMK A01 T10301031  RH  100%=      5-min Rain = 0
KBO1 141313Z 18014KT M03/M03 A3021 RMK A01 T10311031  RH  100%=      5-min Rain = 0
KBO1 141314Z 18012KT M03/M03 A3021 RMK A01 T10311031  RH  100%=      5-min Rain = 0
KBO1 141315Z 18013KT M03/M03 A3021 RMK A01 T10311031  RH  100%=      5-min Rain = 0
KBO1 141316Z 18012KT M03/M03 A3021 RMK A01 T10301031  RH  100%=      5-min Rain = 0
KBO1 141317Z 18013KT M03/M03 A3021 RMK A01 T10311031  RH  100%=      5-min Rain = 0
KBO1 141318Z 18014KT M03/M03 A3021 RMK A01 T10301030  RH  100%=      5-min Rain = 0
KBO1 141319Z 18015KT M03/M03 A3021 RMK A01 T10301030  RH  100%=      5-min Rain = 0
KBO1 141320Z 19015KT M03/M03 A3021 RMK A01 T10301030  RH  100%=      5-min Rain = 0
KBO1 141321Z 19013G18KT M03/M03 A3021 RMK A01 T10301030  RH  100%=      5-min Rain = 0
KBO1 141322Z 19015KT M03/M03 A3021 RMK A01 T10301030  RH  100%=      5-min Rain = 0
KBO1 141323Z 18014KT M03/M03 A3021 RMK A01 T10301030  RH  100%=      5-min Rain = 0
KBO1 141324Z 18013KT M03/M03 A3021 RMK A01 T10301030  RH  100%=      5-min Rain = 0
KBO1 141325Z 18015KT M03/M03 A3021 RMK A01 T10301030  RH  100%=      5-min Rain = 0
KBO1 141326Z 19015KT M03/M03 A3021 RMK A01 T10301030  RH  100%=      5-min Rain = 0
KBO1 141327Z 19016KT M03/M03 A3021 RMK A01 T10301030  RH  100%=      5-min Rain = 0
KBO1 141328Z 18014KT M03/M03 A3021 RMK A01 T10301031  RH  100%=      5-min Rain = 0
KBO1 141329Z 18015KT M03/M03 A3021 RMK A01 T10301030  RH  100%=      5-min Rain = 0
KBO1 141330Z 18015KT M03/M03 A3021 RMK A01 T10301031  RH  100%=      5-min Rain = 0
KBO1 141331Z 18017KT M03/M03 A3021 RMK A01 T10301030  RH  100%=      5-min Rain = 0
KBO1 141332Z 18014KT M03/M03 A3021 RMK A01 T10301030  RH  100%=      5-min Rain = 0
KBO1 141333Z 18014KT M03/M03 A3021 RMK A01 T10301030  RH  100%=      5-min Rain = 0
KBO1 141334Z 19013KT M03/M03 A3021 RMK A01 T10301030  RH  100%=      5-min Rain = 0
KBO1 141335Z 19015KT M03/M03 A3021 RMK A01 T10301030  RH  100%=      5-min Rain = 0
KBO1 141336Z 19015KT M03/M03 A3021 RMK A01 T10301030  RH  100%=      5-min Rain = 0
KBO1 141337Z 19014KT M03/M03 A3021 RMK A01 T10301031  RH  100%=      5-min Rain = 0
KBO1 141338Z 19016KT M03/M03 A3021 RMK A01 T10301030  RH  100%=      5-min Rain = 0
KBO1 141339Z 19016KT M03/M03 A3021 RMK A01 T10301030  RH  100%=      5-min Rain = 0
KBO1 141340Z 19017KT M03/M03 A3021 RMK A01 T10301030  RH  100%=      5-min Rain = 0
KBO1 141341Z 19015KT M03/M03 A3021 RMK A01 T10301030  RH  100%=      5-min Rain = 0
KBO1 141342Z 18014KT M03/M03 A3021 RMK A01 T10301030  RH  100%=      5-min Rain = 0
KBO1 141343Z 18014KT M03/M03 A3021 RMK A01 T10301030  RH  100%=      5-min Rain = 0
KBO1 141344Z 18013KT M03/M03 A3021 RMK A01 T10291029  RH  100%=      5-min Rain = 0
KBO1 141345Z 18014KT M03/M03 A3021 RMK A01 T10301030  RH  100%=      5-min Rain = 0
KBO1 141346Z 19014KT M03/M03 A3021 RMK A01 T10301030  RH  100%=      5-min Rain = 0
KBO1 141347Z 18013KT M03/M03 A3021 RMK A01 T10301030  RH  100%=      5-min Rain = 0
KBO1 141348Z 18014KT M03/M03 A3021 RMK A01 T10301030  RH  100%=      5-min Rain = 0
KBO1 141349Z 18015KT M03/M03 A3021 RMK A01 T10301030  RH  100%=      5-min Rain = 0
KBO1 141350Z 19015KT M03/M03 A3021 RMK A01 T10291029  RH  100%=      5-min Rain = 0
KBO1 141351Z 18014KT M03/M03 A3021 RMK A01 T10291029  RH  100%=      5-min Rain = 0
KBO1 141352Z 19014KT M03/M03 A3021 RMK A01 T10291029  RH  100%=      5-min Rain = 0
KBO1 141353Z 19016KT M03/M03 A3021 RMK A01 T10291029  RH  100%=      5-min Rain = 0
KBO1 141354Z 18015KT M03/M03 A3021 RMK A01 T10291029  RH  100%=      5-min Rain = 0
KBO1 141355Z 18014KT M03/M03 A3021 RMK A01 T10291029  RH  100%=      5-min Rain = 0
KBO1 141356Z 19014G19KT M03/M03 A3021 RMK A01 T10291029  RH  100%=      5-min Rain = 0
KBO1 141357Z 18015KT M03/M03 A3021 RMK A01 T10291029  RH  100%=      5-min Rain = 0
KBO1 141358Z 18017KT M03/M03 A3021 RMK A01 T10291029  RH  100%=      5-min Rain = 0
KBO1 141359Z 19014KT M03/M03 A3021 RMK A01 T10291029  RH  100%=      5-min Rain = 0
KBO1 141400Z 19014KT M03/M03 A3021 RMK A01 T10291029  RH  100%=      5-min Rain = 0
KBO1 141401Z 18015KT M03/M03 A3021 RMK A01 T10281029  RH  100%=      5-min Rain = 0
KBO1 141402Z 18014KT M03/M03 A3021 RMK A01 T10281028  RH  100%=      5-min Rain = 0
KBO1 141403Z 18017KT M03/M03 A3021 RMK A01 T10281028  RH  100%=      5-min Rain = 0
KBO1 141404Z 19016KT M03/M03 A3021 RMK A01 T10281028  RH  100%=      5-min Rain = 0
KBO1 141405Z 18017KT M03/M03 A3021 RMK A01 T10281028  RH  100%=      5-min Rain = 0
KBO1 141406Z 19019KT M03/M03 A3021 RMK A01 T10281028  RH  100%=      5-min Rain = 0
KBO1 141407Z 18017KT M03/M03 A3021 RMK A01 T10291029  RH  100%=      5-min Rain = 0
KBO1 141408Z 19017KT M03/M03 A3021 RMK A01 T10291029  RH  100%=      5-min Rain = 0
KBO1 141409Z 19017KT M03/M03 A3021 RMK A01 T10291029  RH  100%=      5-min Rain = 0
KBO1 141410Z 19017KT M03/M03 A3021 RMK A01 T10291029  RH  100%=      5-min Rain = 0
KBO1 141411Z 19018KT M03/M03 A3021 RMK A01 T10291029  RH  100%=      5-min Rain = 0
KBO1 141412Z 19017KT M03/M03 A3021 RMK A01 T10291029  RH  100%=      5-min Rain = 0
KBO1 141413Z 19018KT M03/M03 A3022 RMK A01 T10291029  RH  100%=      5-min Rain = 0
KBO1 141414Z 18017KT M03/M03 A3022 RMK A01 T10291029  RH  100%=      5-min Rain = 0
KBO1 141415Z 19016KT M03/M03 A3022 RMK A01 T10291029  RH  100%=      5-min Rain = 0
KBO1 141416Z 18018KT M03/M03 A3022 RMK A01 T10291029  RH  100%=      5-min Rain = 0
KBO1 141417Z 19018KT M03/M03 A3022 RMK A01 T10291029  RH  100%=      5-min Rain = 0
KBO1 141418Z 18016KT M03/M03 A3021 RMK A01 T10291029  RH  100%=      5-min Rain = 0
KBO1 141419Z 18017KT M03/M03 A3021 RMK A01 T10291029  RH  100%=      5-min Rain = 0
KBO1 141420Z 18015KT M03/M03 A3022 RMK A01 T10291029  RH  100%=      5-min Rain = 0
KBO1 141421Z 18016KT M03/M03 A3022 RMK A01 T10291029  RH  100%=      5-min Rain = 0
KBO1 141422Z 18013KT M03/M03 A3022 RMK A01 T10291029  RH  100%=      5-min Rain = 0
KBO1 141423Z 18014KT M03/M03 A3022 RMK A01 T10291029  RH  100%=      5-min Rain = 0
KBO1 141424Z 18014KT M03/M03 A3022 RMK A01 T10291029  RH  100%=      5-min Rain = 0
KBO1 141425Z 18016KT M03/M03 A3022 RMK A01 T10281028  RH  100%=      5-min Rain = 0
KBO1 141426Z 19016KT M03/M03 A3022 RMK A01 T10281029  RH  100%=      5-min Rain = 0
KBO1 141427Z 18014KT M03/M03 A3022 RMK A01 T10281028  RH  100%=      5-min Rain = 0
KBO1 141428Z 19014KT M03/M03 A3022 RMK A01 T10281029  RH  100%=      5-min Rain = 0
KBO1 141429Z 19014KT M03/M03 A3022 RMK A01 T10291029  RH  100%=      5-min Rain = 0
KBO1 141430Z 19012KT M03/M03 A3022 RMK A01 T10291029  RH  100%=      5-min Rain = 0
KBO1 141431Z 19014KT M03/M03 A3022 RMK A01 T10281028  RH  100%=      5-min Rain = 0
KBO1 141432Z 18015KT M03/M03 A3022 RMK A01 T10291029  RH  100%=      5-min Rain = 0
KBO1 141433Z 19015KT M03/M03 A3022 RMK A01 T10291029  RH  100%=      5-min Rain = 0
KBO1 141434Z 19017KT M03/M03 A3022 RMK A01 T10291029  RH  100%=      5-min Rain = 0
KBO1 141435Z 19015KT M03/M03 A3022 RMK A01 T10281029  RH  100%=      5-min Rain = 0
KBO1 141436Z 19014KT M03/M03 A3022 RMK A01 T10281028  RH  100%=      5-min Rain = 0
KBO1 141437Z 18015KT M03/M03 A3022 RMK A01 T10281028  RH  100%=      5-min Rain = 0
KBO1 141438Z 19015KT M03/M03 A3021 RMK A01 T10281028  RH  100%=      5-min Rain = 0
KBO1 141439Z 19015KT M03/M03 A3021 RMK A01 T10281028  RH  100%=      5-min Rain = 0
KBO1 141440Z 19014KT M03/M03 A3021 RMK A01 T10271027  RH  100%=      5-min Rain = 0
KBO1 141441Z 19014KT M03/M03 A3021 RMK A01 T10271027  RH  100%=      5-min Rain = 0
KBO1 141442Z 19015KT M03/M03 A3021 RMK A01 T10271027  RH  100%=      5-min Rain = 0
KBO1 141443Z 19017KT M03/M03 A3021 RMK A01 T10271027  RH  100%=      5-min Rain = 0
KBO1 141444Z 19017KT M03/M03 A3021 RMK A01 T10271027  RH  100%=      5-min Rain = 0
KBO1 141445Z 19015KT M03/M03 A3021 RMK A01 T10271027  RH  100%=      5-min Rain = 0
KBO1 141446Z 19017KT M03/M03 A3021 RMK A01 T10261026  RH  100%=      5-min Rain = 0
KBO1 141447Z 19016KT M03/M03 A3021 RMK A01 T10261027  RH  100%=      5-min Rain = 0
KBO1 141448Z 19015KT M03/M03 A3021 RMK A01 T10261027  RH  100%=      5-min Rain = 0
KBO1 141449Z 19016KT M03/M03 A3021 RMK A01 T10261027  RH  100%=      5-min Rain = 0
KBO1 141450Z 19017KT M03/M03 A3021 RMK A01 T10261027  RH  100%=      5-min Rain = 0
KBO1 141451Z 19017KT M03/M03 A3021 RMK A01 T10271027  RH  100%=      5-min Rain = 0
KBO1 141452Z 19015KT M03/M03 A3021 RMK A01 T10271027  RH  100%=      5-min Rain = 0
KBO1 141453Z 19016KT M03/M03 A3021 RMK A01 T10261027  RH  100%=      5-min Rain = 0
KBO1 141454Z 19017KT M03/M03 A3021 RMK A01 T10271027  RH  100%=      5-min Rain = 0
KBO1 141455Z 19017KT M03/M03 A3021 RMK A01 T10271027  RH  100%=      5-min Rain = 0
KBO1 141456Z 19017KT M03/M03 A3021 RMK A01 T10261026  RH  100%=      5-min Rain = 0
KBO1 141457Z 19015KT M03/M03 A3021 RMK A01 T10271027  RH  100%=      5-min Rain = 0
KBO1 141458Z 19017KT M03/M03 A3021 RMK A01 T10261026  RH  100%=      5-min Rain = 0
KBO1 141459Z 19016KT M03/M03 A3021 RMK A01 T10261026  RH  100%=      5-min Rain = 0
KBO1 141500Z 20019KT M03/M03 A3021 RMK A01 T10261026  RH  100%=      5-min Rain = 0
KBO1 141501Z 19018KT M03/M03 A3021 RMK A01 T10261026  RH  100%=      5-min Rain = 0
KBO1 141502Z 19018KT M03/M03 A3021 RMK A01 T10251025  RH  100%=      5-min Rain = 0
KBO1 141503Z 20016KT M03/M03 A3021 RMK A01 T10251025  RH  100%=      5-min Rain = 0
KBO1 141504Z 19020KT M03/M03 A3021 RMK A01 T10251025  RH  100%=      5-min Rain = 0
KBO1 141505Z 19019KT M03/M03 A3021 RMK A01 T10251025  RH  100%=      5-min Rain = 0
KBO1 141506Z 19017KT M03/M03 A3021 RMK A01 T10261026  RH  100%=      5-min Rain = 0
KBO1 141507Z 19018KT M03/M03 A3021 RMK A01 T10261026  RH  100%=      5-min Rain = 0
KBO1 141508Z 19017KT M03/M03 A3022 RMK A01 T10261026  RH  100%=      5-min Rain = 0
KBO1 141509Z 19016KT M03/M03 A3022 RMK A01 T10251025  RH  100%=      5-min Rain = 0
KBO1 141510Z 19016KT M03/M03 A3022 RMK A01 T10251025  RH  100%=      5-min Rain = 0
KBO1 141511Z 19015KT M02/M02 A3022 RMK A01 T10241024  RH  100%=      5-min Rain = 0
KBO1 141512Z 20016KT M02/M02 A3022 RMK A01 T10241024  RH  100%=      5-min Rain = 0
KBO1 141513Z 19015KT M02/M02 A3022 RMK A01 T10241024  RH  100%=      5-min Rain = 0
KBO1 141514Z 19016KT M02/M02 A3022 RMK A01 T10241024  RH  100%=      5-min Rain = 0
KBO1 141515Z 19016KT M02/M02 A3022 RMK A01 T10241024  RH  100%=      5-min Rain = 0
KBO1 141516Z 19015KT M02/M02 A3022 RMK A01 T10241024  RH  100%=      5-min Rain = 0
KBO1 141517Z 19015KT M02/M02 A3022 RMK A01 T10231023  RH  100%=      5-min Rain = 0
KBO1 141518Z 19016KT M02/M02 A3022 RMK A01 T10231023  RH  100%=      5-min Rain = 0
KBO1 141519Z 19016KT M02/M02 A3022 RMK A01 T10231023  RH  100%=      5-min Rain = 0
KBO1 141520Z 19016KT M02/M02 A3022 RMK A01 T10231023  RH  100%=      5-min Rain = 0
KBO1 141521Z 19016KT M02/M02 A3022 RMK A01 T10231023  RH  100%=      5-min Rain = 0
KBO1 141522Z 19016KT M02/M02 A3022 RMK A01 T10231023  RH  100%=      5-min Rain = 0
KBO1 141523Z 19015KT M02/M02 A3022 RMK A01 T10231024  RH  100%=      5-min Rain = 0
KBO1 141524Z 19015KT M02/M02 A3022 RMK A01 T10231023  RH  100%=      5-min Rain = 0
KBO1 141525Z 19017KT M02/M02 A3022 RMK A01 T10231023  RH  100%=      5-min Rain = 0
KBO1 141526Z 19017KT M02/M02 A3022 RMK A01 T10221022  RH  100%=      5-min Rain = 0
KBO1 141527Z 20016KT M02/M02 A3022 RMK A01 T10221023  RH  100%=      5-min Rain = 0
KBO1 141528Z 20017KT M02/M02 A3022 RMK A01 T10231023  RH  100%=      5-min Rain = 0
KBO1 141529Z 20018KT M02/M02 A3022 RMK A01 T10231023  RH  100%=      5-min Rain = 0
KBO1 141530Z 20017KT M02/M02 A3022 RMK A01 T10231023  RH  100%=      5-min Rain = 0
KBO1 141531Z 19017KT M02/M02 A3022 RMK A01 T10231023  RH  100%=      5-min Rain = 0
KBO1 141532Z 19017KT M02/M02 A3022 RMK A01 T10221022  RH  100%=      5-min Rain = 0
KBO1 141533Z 19016KT M02/M02 A3022 RMK A01 T10221022  RH  100%=      5-min Rain = 0
KBO1 141534Z 19016KT M02/M02 A3022 RMK A01 T10221022  RH  100%=      5-min Rain = 0
KBO1 141535Z 19015KT M02/M02 A3022 RMK A01 T10221022  RH  100%=      5-min Rain = 0
KBO1 141536Z 20014KT M02/M02 A3022 RMK A01 T10221022  RH  100%=      5-min Rain = 0
KBO1 141537Z 19014KT M02/M02 A3022 RMK A01 T10221022  RH  100%=      5-min Rain = 0
KBO1 141538Z 19016KT M02/M02 A3022 RMK A01 T10211021  RH  100%=      5-min Rain = 0
KBO1 141539Z 19014KT M02/M02 A3022 RMK A01 T10221022  RH  100%=      5-min Rain = 0
KBO1 141540Z 20016KT M02/M02 A3022 RMK A01 T10221022  RH  100%=      5-min Rain = 0
KBO1 141541Z 20015KT M02/M02 A3022 RMK A01 T10221022  RH  100%=      5-min Rain = 0
KBO1 141542Z 20014KT M02/M02 A3022 RMK A01 T10221022  RH  100%=      5-min Rain = 0
KBO1 141543Z 20014KT M02/M02 A3022 RMK A01 T10221022  RH  100%=      5-min Rain = 0
KBO1 141544Z 19015KT M02/M02 A3022 RMK A01 T10221022  RH  100%=      5-min Rain = 0
KBO1 141545Z 20013KT M02/M02 A3022 RMK A01 T10221022  RH  100%=      5-min Rain = 0
KBO1 141546Z 19015KT M02/M02 A3022 RMK A01 T10211021  RH  100%=      5-min Rain = 0
KBO1 141547Z 20013KT M02/M02 A3022 RMK A01 T10211021  RH  100%=      5-min Rain = 0
KBO1 141548Z 20015KT M02/M02 A3022 RMK A01 T10201020  RH  100%=      5-min Rain = 0
KBO1 141549Z 20017KT M02/M02 A3022 RMK A01 T10201020  RH  100%=      5-min Rain = 0
KBO1 141550Z 20017KT M02/M02 A3022 RMK A01 T10201020  RH  100%=      5-min Rain = 0
KBO1 141551Z 20017KT M02/M02 A3022 RMK A01 T10201020  RH  100%=      5-min Rain = 0
KBO1 141552Z 20016KT M02/M02 A3022 RMK A01 T10201020  RH  100%=      5-min Rain = 0
KBO1 141553Z 20019KT M02/M02 A3022 RMK A01 T10201020  RH  100%=      5-min Rain = 0
KBO1 141554Z 20019KT M02/M02 A3022 RMK A01 T10201020  RH  100%=      5-min Rain = 0
KBO1 141555Z 20016KT M02/M02 A3022 RMK A01 T10201020  RH  100%=      5-min Rain = 0
KBO1 141556Z 20017KT M02/M02 A3022 RMK A01 T10191019  RH  100%=      5-min Rain = 0
KBO1 141557Z 20019KT M02/M02 A3022 RMK A01 T10191019  RH  100%=      5-min Rain = 0
KBO1 141558Z 20017KT M02/M02 A3022 RMK A01 T10191019  RH  100%=      5-min Rain = 0
KBO1 141559Z 20020KT M02/M02 A3022 RMK A01 T10181018  RH  100%=      5-min Rain = 0
KBO1 141600Z 20022KT M02/M02 A3021 RMK A01 T10181018  RH  100%=      5-min Rain = 0
KBO1 141601Z 20022KT M02/M02 A3021 RMK A01 T10191019  RH  100%=      5-min Rain = 0
KBO1 141602Z 20021KT M02/M02 A3021 RMK A01 T10191020  RH  100%=      5-min Rain = 0
KBO1 141603Z 20020KT M02/M02 A3022 RMK A01 T10201020  RH  100%=      5-min Rain = 0
KBO1 141604Z 20022KT M02/M02 A3022 RMK A01 T10201020  RH  100%=      5-min Rain = 0
KBO1 141605Z 20020KT M02/M02 A3022 RMK A01 T10201020  RH  100%=      5-min Rain = 0
KBO1 141606Z 20018KT M02/M02 A3022 RMK A01 T10201020  RH  100%=      5-min Rain = 0
KBO1 141607Z 20016KT M02/M02 A3022 RMK A01 T10191019  RH  100%=      5-min Rain = 0
KBO1 141608Z 20020KT M02/M02 A3022 RMK A01 T10191019  RH  100%=      5-min Rain = 0
KBO1 141609Z 20021KT M02/M02 A3021 RMK A01 T10181019  RH  100%=      5-min Rain = 0
KBO1 141610Z 20020KT M02/M02 A3021 RMK A01 T10181018  RH  100%=      5-min Rain = 0
KBO1 141611Z 21021KT M02/M02 A3021 RMK A01 T10181018  RH  100%=      5-min Rain = 0
KBO1 141612Z 21021KT M02/M02 A3021 RMK A01 T10181018  RH  100%=      5-min Rain = 0
KBO1 141613Z 20022KT M02/M02 A3021 RMK A01 T10181018  RH  100%=      5-min Rain = 0
KBO1 141614Z 20020KT M02/M02 A3021 RMK A01 T10181019  RH  100%=      5-min Rain = 0
KBO1 141615Z 20020KT M02/M02 A3021 RMK A01 T10191019  RH  100%=      5-min Rain = 0
KBO1 141616Z 20019KT M02/M02 A3021 RMK A01 T10181018  RH  100%=      5-min Rain = 0
KBO1 141617Z 20018KT M02/M02 A3021 RMK A01 T10181018  RH  100%=      5-min Rain = 0
KBO1 141618Z 21020KT M02/M02 A3021 RMK A01 T10181018  RH  100%=      5-min Rain = 0
KBO1 141619Z 20016KT M02/M02 A3022 RMK A01 T10181018  RH  100%=      5-min Rain = 0
KBO1 141620Z 20019KT M02/M02 A3022 RMK A01 T10171017  RH  100%=      5-min Rain = 0
KBO1 141621Z 21015KT M02/M02 A3022 RMK A01 T10171017  RH  100%=      5-min Rain = 0
KBO1 141622Z 21015KT M02/M02 A3022 RMK A01 T10181018  RH  100%=      5-min Rain = 0
KBO1 141623Z 20017KT M02/M02 A3022 RMK A01 T10171017  RH  100%=      5-min Rain = 0
KBO1 141624Z 20017KT M02/M02 A3021 RMK A01 T10161016  RH  100%=      5-min Rain = 0
KBO1 141625Z 20017KT M02/M02 A3021 RMK A01 T10161016  RH  100%=      5-min Rain = 0
KBO1 141626Z 20018KT M02/M02 A3021 RMK A01 T10171017  RH  100%=      5-min Rain = 0
KBO1 141627Z 20017KT M02/M02 A3021 RMK A01 T10161016  RH  100%=      5-min Rain = 0
KBO1 141628Z 20017KT M02/M02 A3021 RMK A01 T10161016  RH  100%=      5-min Rain = 0
KBO1 141629Z 20016KT M02/M02 A3021 RMK A01 T10171017  RH  100%=      5-min Rain = 0
KBO1 141630Z 20016KT M02/M02 A3021 RMK A01 T10161016  RH  100%=      5-min Rain = 0
KBO1 141631Z 21017KT M02/M02 A3021 RMK A01 T10161016  RH  100%=      5-min Rain = 0
KBO1 141632Z 20018KT M02/M02 A3021 RMK A01 T10161016  RH  100%=      5-min Rain = 0
KBO1 141633Z 20017KT M02/M02 A3021 RMK A01 T10161016  RH  100%=      5-min Rain = 0
KBO1 141634Z 20018KT M02/M02 A3021 RMK A01 T10151015  RH  100%=      5-min Rain = 0
KBO1 141635Z 20019KT M01/M02 A3021 RMK A01 T10141015  RH  100%=      5-min Rain = 0
KBO1 141636Z 20019KT M02/M02 A3021 RMK A01 T10151015  RH  100%=      5-min Rain = 0
KBO1 141637Z 20020KT M02/M02 A3021 RMK A01 T10151015  RH  100%=      5-min Rain = 0
KBO1 141638Z 20019KT M02/M02 A3021 RMK A01 T10151015  RH  100%=      5-min Rain = 0
KBO1 141639Z 20019KT M02/M02 A3021 RMK A01 T10151015  RH  100%=      5-min Rain = 0
KBO1 141640Z 20019KT M01/M01 A3021 RMK A01 T10141014  RH  100%=      5-min Rain = 0
KBO1 141641Z 20018KT M01/M01 A3021 RMK A01 T10141014  RH  100%=      5-min Rain = 0
KBO1 141642Z 20019KT M01/M01 A3021 RMK A01 T10141014  RH  100%=      5-min Rain = 0
KBO1 141643Z 20019KT M01/M01 A3021 RMK A01 T10141014  RH  100%=      5-min Rain = 0
KBO1 141644Z 20017KT M01/M01 A3021 RMK A01 T10141014  RH  100%=      5-min Rain = 0
KBO1 141645Z 20018KT M01/M01 A3021 RMK A01 T10141014  RH  100%=      5-min Rain = 0
KBO1 141646Z 20019KT M01/M01 A3021 RMK A01 T10141014  RH  100%=      5-min Rain = 0
KBO1 141647Z 20019KT M01/M01 A3021 RMK A01 T10141014  RH  100%=      5-min Rain = 0
KBO1 141648Z 21018KT M01/M01 A3021 RMK A01 T10141014  RH  100%=      5-min Rain = 0
KBO1 141649Z 20016KT M01/M01 A3021 RMK A01 T10141014  RH  100%=      5-min Rain = 0
KBO1 141650Z 20018KT M01/M01 A3021 RMK A01 T10131014  RH  100%=      5-min Rain = 0
KBO1 141651Z 20018KT M01/M01 A3021 RMK A01 T10141014  RH  100%=      5-min Rain = 0
KBO1 141652Z 20016KT M01/M01 A3022 RMK A01 T10141014  RH  100%=      5-min Rain = 0
KBO1 141653Z 20017KT M01/M01 A3022 RMK A01 T10141014  RH  100%=      5-min Rain = 0
KBO1 141654Z 20017KT M01/M01 A3022 RMK A01 T10141014  RH  100%=      5-min Rain = 0
KBO1 141655Z 20015KT M01/M01 A3022 RMK A01 T10141014  RH  100%=      5-min Rain = 0
KBO1 141656Z 20015KT M01/M01 A3022 RMK A01 T10131013  RH  100%=      5-min Rain = 0
KBO1 141657Z 21015KT M01/M01 A3022 RMK A01 T10131013  RH  100%=      5-min Rain = 0
KBO1 141658Z 20015KT M01/M01 A3021 RMK A01 T10131013  RH  100%=      5-min Rain = 0
KBO1 141659Z 20015KT M01/M01 A3021 RMK A01 T10141014  RH  100%=      5-min Rain = 0
KBO1 141700Z 20016KT M01/M01 A3021 RMK A01 T10141014  RH  100%=      5-min Rain = 0
KBO1 141701Z 20014KT M01/M01 A3021 RMK A01 T10131013  RH  100%=      5-min Rain = 0
KBO1 141702Z 20016KT M01/M01 A3021 RMK A01 T10131013  RH  100%=      5-min Rain = 0
KBO1 141703Z 20015KT M01/M01 A3021 RMK A01 T10131013  RH  100%=      5-min Rain = 0
KBO1 141704Z 20013KT M01/M01 A3021 RMK A01 T10121012  RH  100%=      5-min Rain = 0
KBO1 141705Z 20015KT M01/M01 A3021 RMK A01 T10121012  RH  100%=      5-min Rain = 0
KBO1 141706Z 20017KT M01/M01 A3021 RMK A01 T10111011  RH  100%=      5-min Rain = 0
KBO1 141707Z 20016KT M01/M01 A3021 RMK A01 T10121012  RH  100%=      5-min Rain = 0
KBO1 141708Z 20014KT M01/M01 A3021 RMK A01 T10121012  RH  100%=      5-min Rain = 0
KBO1 141709Z 20016KT M01/M01 A3021 RMK A01 T10111011  RH  100%=      5-min Rain = 0
KBO1 141710Z 20015KT M01/M01 A3021 RMK A01 T10111011  RH  100%=      5-min Rain = 0
KBO1 141711Z 20015KT M01/M01 A3021 RMK A01 T10111011  RH  100%=      5-min Rain = 0
KBO1 141712Z 20015KT M01/M01 A3021 RMK A01 T10111012  RH  100%=      5-min Rain = 0
KBO1 141713Z 20016KT M01/M01 A3021 RMK A01 T10111011  RH  100%=      5-min Rain = 0
KBO1 141714Z 20015KT M01/M01 A3021 RMK A01 T10121012  RH  100%=      5-min Rain = 0
KBO1 141715Z 21017KT M01/M01 A3021 RMK A01 T10121012  RH  100%=      5-min Rain = 0
KBO1 141716Z 21015KT M01/M01 A3021 RMK A01 T10121012  RH  100%=      5-min Rain = 0
KBO1 141717Z 21015KT M01/M01 A3021 RMK A01 T10111011  RH  100%=      5-min Rain = 0
KBO1 141718Z 21014KT M01/M01 A3021 RMK A01 T10111011  RH  100%=      5-min Rain = 0
KBO1 141719Z 20015KT M01/M01 A3021 RMK A01 T10111011  RH  100%=      5-min Rain = 0
KBO1 141720Z 20014KT M01/M01 A3021 RMK A01 T10101010  RH  100%=      5-min Rain = 0
KBO1 141721Z 20014KT M01/M01 A3021 RMK A01 T10091010  RH  100%=      5-min Rain = 0
KBO1 141722Z 20015KT M01/M01 A3021 RMK A01 T10081008  RH  100%=      5-min Rain = 0
KBO1 141723Z 20015KT M01/M01 A3021 RMK A01 T10081008  RH  100%=      5-min Rain = 0
KBO1 141724Z 20016KT M01/M01 A3021 RMK A01 T10071007  RH  100%=      5-min Rain = 0
KBO1 141725Z 21017KT M01/M01 A3021 RMK A01 T10071007  RH  100%=      5-min Rain = 0
KBO1 141726Z 20015KT M01/M01 A3021 RMK A01 T10071008  RH  100%=      5-min Rain = 0
KBO1 141727Z 20016KT M01/M01 A3021 RMK A01 T10081008  RH  100%=      5-min Rain = 0
KBO1 141728Z 20016KT M01/M01 A3021 RMK A01 T10081008  RH  100%=      5-min Rain = 0
KBO1 141729Z 20016KT M01/M01 A3021 RMK A01 T10081008  RH  100%=      5-min Rain = 0
KBO1 141730Z 19016KT M01/M01 A3021 RMK A01 T10081008  RH  100%=      5-min Rain = 0
KBO1 141731Z 19016KT M01/M01 A3021 RMK A01 T10091009  RH  100%=      5-min Rain = 0
KBO1 141732Z 20014KT M01/M01 A3021 RMK A01 T10091009  RH  100%=      5-min Rain = 0
KBO1 141733Z 20014KT M01/M01 A3021 RMK A01 T10091009  RH  100%=      5-min Rain = 0
KBO1 141734Z 20013KT M01/M01 A3021 RMK A01 T10081008  RH  100%=      5-min Rain = 0
KBO1 141735Z 21015KT M01/M01 A3021 RMK A01 T10081008  RH  100%=      5-min Rain = 0
KBO1 141736Z 20016KT M01/M01 A3021 RMK A01 T10081008  RH  100%=      5-min Rain = 0
KBO1 141737Z 20015KT M01/M01 A3021 RMK A01 T10081008  RH  100%=      5-min Rain = 0
KBO1 141738Z 20014KT M01/M01 A3021 RMK A01 T10081008  RH  100%=      5-min Rain = 0
KBO1 141739Z 20016KT M01/M01 A3021 RMK A01 T10071007  RH  100%=      5-min Rain = 0
KBO1 141740Z 19015KT M01/M01 A3021 RMK A01 T10081008  RH  100%=      5-min Rain = 0
KBO1 141741Z 19017KT M01/M01 A3021 RMK A01 T10071008  RH  100%=      5-min Rain = 0
KBO1 141742Z 20015KT M01/M01 A3021 RMK A01 T10081008  RH  100%=      5-min Rain = 0
KBO1 141743Z 19016KT M01/M01 A3021 RMK A01 T10071007  RH  100%=      5-min Rain = 0
KBO1 141744Z 20014KT M01/M01 A3021 RMK A01 T10071007  RH  100%=      5-min Rain = 0
KBO1 141745Z 20014KT M01/M01 A3021 RMK A01 T10071007  RH  100%=      5-min Rain = 0
KBO1 141746Z 20015KT M01/M01 A3021 RMK A01 T10061006  RH  100%=      5-min Rain = 0
KBO1 141747Z 20013KT M01/M01 A3021 RMK A01 T10061006  RH  100%=      5-min Rain = 0
KBO1 141748Z 19017KT M01/M01 A302 RMK A01 T10051005  RH  100%=      5-min Rain = 0
KBO1 141749Z 20015KT M01/M01 A302 RMK A01 T10051005  RH  100%=      5-min Rain = 0
KBO1 141750Z 19015KT M01/M01 A302 RMK A01 T10051005  RH  100%=      5-min Rain = 0
KBO1 141751Z 20015KT M01/M01 A302 RMK A01 T10051005  RH  100%=      5-min Rain = 0
KBO1 141752Z 20015KT M01/M01 A302 RMK A01 T10051005  RH  100%=      5-min Rain = 0
KBO1 141753Z 19016KT M01/M01 A302 RMK A01 T10051005  RH  100%=      5-min Rain = 0
KBO1 141754Z 20015KT M01/M01 A302 RMK A01 T10051005  RH  100%=      5-min Rain = 0
KBO1 141755Z 20013KT M00/M00 A302 RMK A01 T10041004  RH  100%=      5-min Rain = 0
KBO1 141756Z 20015KT M00/M00 A302 RMK A01 T10031003  RH  100%=      5-min Rain = 0
KBO1 141757Z 20015KT M00/M00 A302 RMK A01 T10031003  RH  100%=      5-min Rain = 0
KBO1 141758Z 20016KT M00/M00 A302 RMK A01 T10031003  RH  100%=      5-min Rain = 0
KBO1 141759Z 20016KT M00/M00 A302 RMK A01 T10031003  RH  100%=      5-min Rain = 0
KBO1 141800Z 20017KT M00/M00 A302 RMK A01 T10031003  RH  100%=      5-min Rain = 0
KBO1 141801Z 20015KT M00/M00 A302 RMK A01 T10031003  RH  100%=      5-min Rain = 0
KBO1 141802Z 19015KT M00/M00 A302 RMK A01 T10031003  RH  100%=      5-min Rain = 0
KBO1 141803Z 20017KT M00/M00 A302 RMK A01 T10031003  RH  100%=      5-min Rain = 0
KBO1 141804Z 20015KT M00/M00 A302 RMK A01 T10031003  RH  100%=      5-min Rain = 0
KBO1 141805Z 19015KT M00/M00 A302 RMK A01 T10031003  RH  100%=      5-min Rain = 0
KBO1 141806Z 19014KT M00/M00 A302 RMK A01 T10031003  RH  100%=      5-min Rain = 0
KBO1 141807Z 19015KT M00/M00 A302 RMK A01 T10021002  RH  100%=      5-min Rain = 0
KBO1 141808Z 20015KT M00/M00 A302 RMK A01 T10021002  RH  100%=      5-min Rain = 0
KBO1 141809Z 21015KT M00/M00 A302 RMK A01 T10011001  RH  100%=      5-min Rain = 0
KBO1 141810Z 20017KT M00/M00 A3019 RMK A01 T10011001  RH  100%=      5-min Rain = 0
KBO1 141811Z 21020KT 00/00 A3019 RMK A01 T00-000-0  RH  100%=      5-min Rain = 0
KBO1 141812Z 20019KT 00/00 A3019 RMK A01 T00-000-0  RH  100%=      5-min Rain = 0
KBO1 141813Z 20016KT 00/00 A3019 RMK A01 T00-000-1  RH  100%=      5-min Rain = 0
KBO1 141814Z 20018KT 00/00 A3019 RMK A01 T00010001  RH  100%=      5-min Rain = 0
KBO1 141815Z 20020KT 00/00 A3019 RMK A01 T00020002  RH  100%=      5-min Rain = 0
KBO1 141816Z 20019KT 00/00 A3019 RMK A01 T00030003  RH  100%=      5-min Rain = 0
KBO1 141817Z 20020KT 01/01 A3019 RMK A01 T00050005  RH  100%=      5-min Rain = 0
KBO1 141818Z 21021KT 01/01 A3019 RMK A01 T00050005  RH  100%=      5-min Rain = 0
KBO1 141819Z 21020KT 01/01 A3019 RMK A01 T00050005  RH  100%=      5-min Rain = 0
KBO1 141820Z 20018KT 00/00 A3018 RMK A01 T00040004  RH  100%=      5-min Rain = 0
KBO1 141821Z 20019KT 00/00 A3019 RMK A01 T00040004  RH  100%=      5-min Rain = 0
KBO1 141822Z 21019KT 01/01 A3018 RMK A01 T00050005  RH  100%=      5-min Rain = 0
KBO1 141823Z 21018KT 00/00 A3018 RMK A01 T00040004  RH  100%=      5-min Rain = 0
KBO1 141824Z 20016KT 01/01 A3018 RMK A01 T00050005  RH  100%=      5-min Rain = 0
KBO1 141825Z 19015KT 01/01 A3019 RMK A01 T00080008  RH  100%=      5-min Rain = 0
KBO1 141826Z 19015G20KT 01/01 A3019 RMK A01 T00090009  RH  100%=      5-min Rain = 0
KBO1 141827Z 19018KT 01/01 A3018 RMK A01 T00080008  RH  100%=      5-min Rain = 0
KBO1 141828Z 20015KT 01/01 A3019 RMK A01 T00080007  RH  100%=      5-min Rain = 0
KBO1 141829Z 20018KT 01/01 A3019 RMK A01 T00100010  RH  100%=      5-min Rain = 0
KBO1 141830Z 21020KT 01/01 A3018 RMK A01 T00100010  RH  100%=      5-min Rain = 0
KBO1 141831Z 20016KT 01/01 A3018 RMK A01 T00080008  RH  100%=      5-min Rain = 0
KBO1 141832Z 20016KT 01/01 A3018 RMK A01 T00090009  RH  100%=      5-min Rain = 0
KBO1 141833Z 20018KT 01/01 A3018 RMK A01 T00100010  RH  100%=      5-min Rain = 0
KBO1 141834Z 20020KT 01/01 A3018 RMK A01 T00100009  RH  100%=      5-min Rain = 0
KBO1 141835Z 20020KT 01/01 A3018 RMK A01 T00090009  RH  100%=      5-min Rain = 0
KBO1 141836Z 20022KT 01/01 A3018 RMK A01 T00100010  RH  100%=      5-min Rain = 0
KBO1 141837Z 20020KT 01/01 A3018 RMK A01 T00110011  RH  100%=      5-min Rain = 0
KBO1 141838Z 20017KT 01/01 A3018 RMK A01 T00120012  RH  100%=      5-min Rain = 0
KBO1 141839Z 19015G22KT 01/01 A3018 RMK A01 T00140014  RH  100%=      5-min Rain = 0
KBO1 141840Z 21021KT 02/02 A3018 RMK A01 T00200020  RH  100%=      5-min Rain = 0
KBO1 141841Z 21021KT 02/02 A3018 RMK A01 T00190019  RH  100%=      5-min Rain = 0
KBO1 141842Z 21019KT 02/02 A3017 RMK A01 T00170017  RH  100%=      5-min Rain = 0
KBO1 141843Z 21021KT 02/02 A3017 RMK A01 T00190019  RH  100%=      5-min Rain = 0
KBO1 141844Z 20022KT 02/02 A3017 RMK A01 T00200019  RH  099%=      5-min Rain = 0
KBO1 141845Z 20021KT 02/01 A3017 RMK A01 T00210013  RH  095%=      5-min Rain = 0
KBO1 141846Z 20021KT 02/01 A3017 RMK A01 T00220010  RH  092%=      5-min Rain = 0
KBO1 141847Z 20018KT 02/01 A3017 RMK A01 T00220008  RH  090%=      5-min Rain = 0
KBO1 141848Z 20017KT 02/01 A3017 RMK A01 T00240009  RH  090%=      5-min Rain = 0
KBO1 141849Z 21020KT 03/01 A3017 RMK A01 T00290013  RH  089%=      5-min Rain = 0
KBO1 141850Z 20021KT 03/01 A3016 RMK A01 T00330012  RH  086%=      5-min Rain = 0
KBO1 141851Z 20023KT 03/01 A3016 RMK A01 T00330009  RH  084%=      5-min Rain = 0
KBO1 141852Z 20022KT 03/01 A3016 RMK A01 T00340007  RH  083%=      5-min Rain = 0
KBO1 141853Z 20022KT 03/01 A3016 RMK A01 T00340006  RH  082%=      5-min Rain = 0
KBO1 141854Z 20020KT 04/01 A3016 RMK A01 T00350006  RH  082%=      5-min Rain = 0
KBO1 141855Z 20018G23KT 04/01 A3016 RMK A01 T00370008  RH  081%=      5-min Rain = 0
KBO1 141856Z 20020KT 04/01 A3016 RMK A01 T00400010  RH  081%=      5-min Rain = 0
KBO1 141857Z 21021KT 04/01 A3015 RMK A01 T00410008  RH  079%=      5-min Rain = 0
KBO1 141858Z 20020KT 04/01 A3015 RMK A01 T00420009  RH  079%=      5-min Rain = 0
KBO1 141859Z 20021KT 04/01 A3015 RMK A01 T00430008  RH  078%=      5-min Rain = 0
KBO1 141900Z 20019KT 04/01 A3015 RMK A01 T00430005  RH  077%=      5-min Rain = 0
KBO1 141901Z 20018KT 04/00 A3015 RMK A01 T00400003  RH  077%=      5-min Rain = 0
KBO1 141902Z 20020KT 04/00 A3015 RMK A01 T00390004  RH  078%=      5-min Rain = 0
KBO1 141903Z 20016KT 04/01 A3015 RMK A01 T00400007  RH  079%=      5-min Rain = 0
KBO1 141904Z 21017KT 04/01 A3015 RMK A01 T00420008  RH  078%=      5-min Rain = 0
KBO1 141905Z 20016KT 04/01 A3015 RMK A01 T00420005  RH  077%=      5-min Rain = 0
KBO1 141906Z 20018KT 04/01 A3015 RMK A01 T00410006  RH  078%=      5-min Rain = 0
KBO1 141907Z 21016KT 04/01 A3015 RMK A01 T00440009  RH  078%=      5-min Rain = 0
KBO1 141908Z 21017KT 04/01 A3015 RMK A01 T00440005  RH  076%=      5-min Rain = 0
KBO1 141909Z 20020KT 04/00 A3014 RMK A01 T00420004  RH  077%=      5-min Rain = 0
KBO1 141910Z 20019KT 04/00 A3014 RMK A01 T00400002  RH  077%=      5-min Rain = 0
KBO1 141911Z 20016G21KT 04/00 A3014 RMK A01 T00390004  RH  078%=      5-min Rain = 0
KBO1 141912Z 20021KT 04/01 A3014 RMK A01 T00400005  RH  078%=      5-min Rain = 0
KBO1 141913Z 21021KT 04/00 A3014 RMK A01 T00400003  RH  077%=      5-min Rain = 0
KBO1 141914Z 20021KT 04/00 A3014 RMK A01 T00380003  RH  077%=      5-min Rain = 0
KBO1 141915Z 20020KT 04/00 A3014 RMK A01 T00400004  RH  078%=      5-min Rain = 0
KBO1 141916Z 21021KT 04/00 A3014 RMK A01 T00400004  RH  077%=      5-min Rain = 0
KBO1 141917Z 20020KT 04/01 A3014 RMK A01 T00410006  RH  078%=      5-min Rain = 0
KBO1 141918Z 20018KT 04/01 A3014 RMK A01 T00430006  RH  077%=      5-min Rain = 0
KBO1 141919Z 21020KT 05/01 A3014 RMK A01 T00460009  RH  077%=      5-min Rain = 0
KBO1 141920Z 21022KT 05/01 A3014 RMK A01 T00480006  RH  074%=      5-min Rain = 0
KBO1 141921Z 21022KT 05/01 A3014 RMK A01 T00480005  RH  074%=      5-min Rain = 0
KBO1 141922Z 21022KT 05/01 A3014 RMK A01 T00500007  RH  074%=      5-min Rain = 0
KBO1 141923Z 21020KT 05/01 A3014 RMK A01 T00520009  RH  074%=      5-min Rain = 0
KBO1 141924Z 20021KT 05/01 A3014 RMK A01 T00540008  RH  072%=      5-min Rain = 0
KBO1 141925Z 21024KT 05/00 A3014 RMK A01 T00520004  RH  071%=      5-min Rain = 0
KBO1 141926Z 21023KT 05/00 A3014 RMK A01 T00490000  RH  071%=      5-min Rain = 0
KBO1 141927Z 21022KT 05/00 A3014 RMK A01 T00480002  RH  072%=      5-min Rain = 0
KBO1 141928Z 21020KT 05/00 A3014 RMK A01 T00500004  RH  072%=      5-min Rain = 0
KBO1 141929Z 21021KT 06/01 A3014 RMK A01 T00550009  RH  072%=      5-min Rain = 0
KBO1 141930Z 21022KT 06/01 A3013 RMK A01 T00590009  RH  070%=      5-min Rain = 0
KBO1 141931Z 21018KT 06/01 A3014 RMK A01 T00600009  RH  070%=      5-min Rain = 0
KBO1 141932Z 20022KT 06/01 A3013 RMK A01 T00610009  RH  069%=      5-min Rain = 0
KBO1 141933Z 20020KT 06/01 A3013 RMK A01 T00580006  RH  069%=      5-min Rain = 0
KBO1 141934Z 21019KT 06/01 A3013 RMK A01 T00580008  RH  070%=      5-min Rain = 0
KBO1 141935Z 21022KT 06/01 A3013 RMK A01 T00580006  RH  069%=      5-min Rain = 0
KBO1 141936Z 21023KT 06/00 A3013 RMK A01 T00560003  RH  069%=      5-min Rain = 0
KBO1 141937Z 20022KT 05/00 A3013 RMK A01 T00530001  RH  069%=      5-min Rain = 0
KBO1 141938Z 20021KT 05/00 A3013 RMK A01 T00520002  RH  070%=      5-min Rain = 0
KBO1 141939Z 20021KT 05/00 A3013 RMK A01 T00520002  RH  070%=      5-min Rain = 0
KBO1 141940Z 20019KT 05/00 A3013 RMK A01 T00520003  RH  071%=      5-min Rain = 0
KBO1 141941Z 20019G24KT 05/00 A3013 RMK A01 T00520004  RH  071%=      5-min Rain = 0
KBO1 141942Z 21019KT 05/00 A3013 RMK A01 T00530003  RH  070%=      5-min Rain = 0
KBO1 141943Z 22018KT 06/00 A3013 RMK A01 T00550003  RH  069%=      5-min Rain = 0
KBO1 141944Z 22019KT 06/01 A3013 RMK A01 T00570006  RH  070%=      5-min Rain = 0
KBO1 141945Z 20019KT 06/01 A3013 RMK A01 T00600009  RH  070%=      5-min Rain = 0
KBO1 141946Z 20018G23KT 06/01 A3013 RMK A01 T00620009  RH  069%=      5-min Rain = 0
KBO1 141947Z 20018KT 06/01 A3013 RMK A01 T00620009  RH  069%=      5-min Rain = 0
KBO1 141948Z 21019KT 06/01 A3012 RMK A01 T00620008  RH  068%=      5-min Rain = 0
KBO1 141949Z 20018KT 06/01 A3012 RMK A01 T00620007  RH  068%=      5-min Rain = 0
KBO1 141950Z 21019KT 06/01 A3012 RMK A01 T00640010  RH  069%=      5-min Rain = 0
KBO1 141951Z 22018KT 07/01 A3012 RMK A01 T00650007  RH  067%=      5-min Rain = 0
KBO1 141952Z 21018KT 06/01 A3012 RMK A01 T00640009  RH  068%=      5-min Rain = 0
KBO1 141953Z 22019KT 07/01 A3012 RMK A01 T00680011  RH  067%=      5-min Rain = 0
KBO1 141954Z 21019G26KT 07/01 A3012 RMK A01 T00670007  RH  066%=      5-min Rain = 0
KBO1 141955Z 22020G25KT 07/01 A3012 RMK A01 T00660007  RH  066%=      5-min Rain = 0
KBO1 141956Z 22019KT 07/01 A3012 RMK A01 T00670007  RH  065%=      5-min Rain = 0
KBO1 141957Z 21018KT 07/01 A3012 RMK A01 T00670007  RH  065%=      5-min Rain = 0
KBO1 141958Z 21019KT 07/01 A3012 RMK A01 T00670007  RH  066%=      5-min Rain = 0
KBO1 141959Z 20020KT 07/01 A3012 RMK A01 T00670007  RH  065%=      5-min Rain = 0
KBO1 142000Z 20019KT 07/01 A3012 RMK A01 T00660007  RH  066%=      5-min Rain = 0
KBO1 142001Z 21018KT 07/01 A3011 RMK A01 T00650006  RH  066%=      5-min Rain = 0
KBO1 142002Z 22017KT 07/01 A3011 RMK A01 T00670011  RH  067%=      5-min Rain = 0
KBO1 142003Z 21018KT 07/01 A3011 RMK A01 T00710011  RH  066%=      5-min Rain = 0
KBO1 142004Z 21017G22KT 07/01 A3011 RMK A01 T00730012  RH  065%=      5-min Rain = 0
KBO1 142005Z 22020KT 08/01 A3011 RMK A01 T00750009  RH  063%=      5-min Rain = 0
KBO1 142006Z 22021KT 08/01 A3011 RMK A01 T00750008  RH  063%=      5-min Rain = 0
KBO1 142007Z 21017KT 07/01 A3011 RMK A01 T00740010  RH  064%=      5-min Rain = 0
KBO1 142008Z 21021KT 08/01 A3011 RMK A01 T00760012  RH  064%=      5-min Rain = 0
KBO1 142009Z 20019KT 08/01 A3011 RMK A01 T00760009  RH  063%=      5-min Rain = 0
KBO1 142010Z 20022KT 07/01 A3011 RMK A01 T00740009  RH  063%=      5-min Rain = 0
KBO1 142011Z 20020KT 08/01 A3011 RMK A01 T00750008  RH  062%=      5-min Rain = 0
KBO1 142012Z 20020KT 08/01 A3011 RMK A01 T00750010  RH  063%=      5-min Rain = 0
KBO1 142013Z 21021KT 08/01 A301 RMK A01 T00760009  RH  063%=      5-min Rain = 0
KBO1 142014Z 21019KT 08/01 A301 RMK A01 T00750008  RH  062%=      5-min Rain = 0
KBO1 142015Z 20018G23KT 08/02 A301 RMK A01 T00780015  RH  064%=      5-min Rain = 0
KBO1 142016Z 21020KT 08/01 A301 RMK A01 T00820014  RH  062%=      5-min Rain = 0
KBO1 142017Z 21019KT 08/01 A301 RMK A01 T00820012  RH  061%=      5-min Rain = 0
KBO1 142018Z 21019KT 08/01 A301 RMK A01 T00810012  RH  061%=      5-min Rain = 0
KBO1 142019Z 21020KT 08/01 A301 RMK A01 T00810010  RH  061%=      5-min Rain = 0
KBO1 142020Z 22020KT 08/01 A301 RMK A01 T00800007  RH  060%=      5-min Rain = 0
KBO1 142021Z 21020KT 08/01 A301 RMK A01 T00790009  RH  061%=      5-min Rain = 0
KBO1 142022Z 20017KT 08/01 A301 RMK A01 T00790011  RH  062%=      5-min Rain = 0
KBO1 142023Z 20018KT 08/01 A301 RMK A01 T00800011  RH  062%=      5-min Rain = 0
KBO1 142024Z 20019KT 08/01 A301 RMK A01 T00820013  RH  062%=      5-min Rain = 0
KBO1 142025Z 20020KT 08/01 A301 RMK A01 T00830009  RH  060%=      5-min Rain = 0
KBO1 142026Z 21019KT 08/01 A301 RMK A01 T00810007  RH  060%=      5-min Rain = 0
KBO1 142027Z 21018KT 08/01 A3009 RMK A01 T00810009  RH  061%=      5-min Rain = 0
KBO1 142028Z 21022KT 08/01 A3009 RMK A01 T00820009  RH  060%=      5-min Rain = 0
KBO1 142029Z 21020KT 08/01 A3009 RMK A01 T00820005  RH  058%=      5-min Rain = 0
KBO1 142030Z 20016KT 08/01 A3009 RMK A01 T00810009  RH  060%=      5-min Rain = 0
KBO1 142031Z 20019KT 09/01 A3009 RMK A01 T00860011  RH  059%=      5-min Rain = 0
KBO1 142032Z 21020G26KT 09/01 A3009 RMK A01 T00870011  RH  059%=      5-min Rain = 0
KBO1 142033Z 21022KT 09/01 A3009 RMK A01 T00870006  RH  057%=      5-min Rain = 0
KBO1 142034Z 21022KT 09/00 A3009 RMK A01 T00850003  RH  056%=      5-min Rain = 0
KBO1 142035Z 20023KT 08/00 A3009 RMK A01 T00820002  RH  057%=      5-min Rain = 0
KBO1 142036Z 20022KT 08/00 A3009 RMK A01 T00810002  RH  057%=      5-min Rain = 0
KBO1 142037Z 21022G27KT 08/00 A3009 RMK A01 T00810002  RH  057%=      5-min Rain = 0
KBO1 142038Z 21024KT 08/00 A3009 RMK A01 T00830002  RH  057%=      5-min Rain = 0
KBO1 142039Z 21022KT 08/M00 A3008 RMK A01 T00831001  RH  056%=      5-min Rain = 0
KBO1 142040Z 22022KT 08/00 A3009 RMK A01 T00830001  RH  056%=      5-min Rain = 0
KBO1 142041Z 21021KT 08/00 A3009 RMK A01 T00830002  RH  057%=      5-min Rain = 0
KBO1 142042Z 21022KT 08/00 A3008 RMK A01 T00840003  RH  057%=      5-min Rain = 0
KBO1 142043Z 21024KT 08/00 A3008 RMK A01 T00840003  RH  057%=      5-min Rain = 0
KBO1 142044Z 21021KT 08/00 A3008 RMK A01 T00830004  RH  057%=      5-min Rain = 0
KBO1 142045Z 20024KT 08/00 A3008 RMK A01 T00840004  RH  057%=      5-min Rain = 0
KBO1 142046Z 21022KT 08/00 A3008 RMK A01 T00830003  RH  057%=      5-min Rain = 0
KBO1 142047Z 21023KT 08/00 A3008 RMK A01 T00830004  RH  058%=      5-min Rain = 0
KBO1 142048Z 21021KT 08/01 A3008 RMK A01 T00830005  RH  058%=      5-min Rain = 0
KBO1 142049Z 20021KT 08/01 A3008 RMK A01 T00820005  RH  059%=      5-min Rain = 0
KBO1 142050Z 20021KT 08/01 A3008 RMK A01 T00820007  RH  059%=      5-min Rain = 0
KBO1 142051Z 21019KT 08/01 A3008 RMK A01 T00830011  RH  060%=      5-min Rain = 0
KBO1 142052Z 21022KT 09/01 A3007 RMK A01 T00870010  RH  058%=      5-min Rain = 0
KBO1 142053Z 21018G25KT 09/01 A3008 RMK A01 T00880010  RH  058%=      5-min Rain = 0
KBO1 142054Z 21019G24KT 09/01 A3008 RMK A01 T00910013  RH  058%=      5-min Rain = 0
KBO1 142055Z 21021KT 09/01 A3008 RMK A01 T00910006  RH  055%=      5-min Rain = 0
KBO1 142056Z 20022KT 09/01 A3008 RMK A01 T00900008  RH  057%=      5-min Rain = 0
KBO1 142057Z 19019KT 09/01 A3008 RMK A01 T00880007  RH  057%=      5-min Rain = 0
KBO1 142058Z 20019KT 09/01 A3008 RMK A01 T00870009  RH  058%=      5-min Rain = 0
KBO1 142059Z 21021KT 09/01 A3007 RMK A01 T00890010  RH  057%=      5-min Rain = 0
KBO1 142100Z 20022KT 09/01 A3007 RMK A01 T00900009  RH  057%=      5-min Rain = 0
KBO1 142101Z 20023KT 09/01 A3007 RMK A01 T00890007  RH  057%=      5-min Rain = 0
KBO1 142102Z 20023KT 09/01 A3007 RMK A01 T00880008  RH  057%=      5-min Rain = 0
KBO1 142103Z 20022KT 09/01 A3007 RMK A01 T00880007  RH  057%=      5-min Rain = 0
KBO1 142104Z 20023G29KT 09/01 A3007 RMK A01 T00880010  RH  058%=      5-min Rain = 0
KBO1 142105Z 20023KT 09/01 A3007 RMK A01 T00900007  RH  056%=      5-min Rain = 0
KBO1 142106Z 19023KT 09/01 A3007 RMK A01 T00890007  RH  057%=      5-min Rain = 0
KBO1 142107Z 20024KT 09/01 A3007 RMK A01 T00890008  RH  057%=      5-min Rain = 0
KBO1 142108Z 20021KT 09/01 A3007 RMK A01 T00890008  RH  056%=      5-min Rain = 0
KBO1 142109Z 20024KT 09/01 A3007 RMK A01 T00900010  RH  057%=      5-min Rain = 0
KBO1 142110Z 21023KT 09/01 A3007 RMK A01 T00930011  RH  057%=      5-min Rain = 0
KBO1 142111Z 21022KT 09/01 A3007 RMK A01 T00920010  RH  056%=      5-min Rain = 0
KBO1 142112Z 20023KT 09/01 A3007 RMK A01 T00910011  RH  057%=      5-min Rain = 0
KBO1 142113Z 21025KT 09/01 A3007 RMK A01 T00920010  RH  056%=      5-min Rain = 0
KBO1 142114Z 20023G30KT 09/01 A3007 RMK A01 T00920010  RH  057%=      5-min Rain = 0
KBO1 142115Z 21024KT 09/01 A3006 RMK A01 T00930006  RH  055%=      5-min Rain = 0
KBO1 142116Z 20022KT 09/01 A3007 RMK A01 T00940006  RH  054%=      5-min Rain = 0
KBO1 142117Z 20024KT 09/01 A3007 RMK A01 T00940009  RH  055%=      5-min Rain = 0
KBO1 142118Z 21024G29KT 09/01 A3007 RMK A01 T00930010  RH  056%=      5-min Rain = 0
KBO1 142119Z 20024KT 09/01 A3007 RMK A01 T00930010  RH  056%=      5-min Rain = 0
KBO1 142120Z 20024KT 09/01 A3007 RMK A01 T00940010  RH  056%=      5-min Rain = 0
KBO1 142121Z 19022KT 09/01 A3007 RMK A01 T00920009  RH  056%=      5-min Rain = 0
KBO1 142122Z 20022KT 09/01 A3007 RMK A01 T00930009  RH  056%=      5-min Rain = 0
KBO1 142123Z 20024KT 09/01 A3007 RMK A01 T00940010  RH  056%=      5-min Rain = 0
KBO1 142124Z 20023G29KT 09/01 A3007 RMK A01 T00940008  RH  055%=      5-min Rain = 0
KBO1 142125Z 20021KT 09/01 A3007 RMK A01 T00940009  RH  055%=      5-min Rain = 0
KBO1 142126Z 21022G27KT 10/01 A3007 RMK A01 T00950010  RH  056%=      5-min Rain = 0
KBO1 142127Z 21024KT 10/01 A3006 RMK A01 T00950007  RH  054%=      5-min Rain = 0
KBO1 142128Z 21023KT 09/01 A3007 RMK A01 T00940008  RH  055%=      5-min Rain = 0
KBO1 142129Z 20021KT 10/01 A3007 RMK A01 T00950010  RH  055%=      5-min Rain = 0
KBO1 142130Z 20022G28KT 10/01 A3007 RMK A01 T00950010  RH  055%=      5-min Rain = 0
KBO1 142131Z 20025KT 10/01 A3006 RMK A01 T00950009  RH  055%=      5-min Rain = 0
KBO1 142132Z 21024KT 10/01 A3006 RMK A01 T00950006  RH  054%=      5-min Rain = 0
KBO1 142133Z 21023KT 09/01 A3006 RMK A01 T00940008  RH  055%=      5-min Rain = 0
KBO1 142134Z 20024KT 10/01 A3007 RMK A01 T00960009  RH  055%=      5-min Rain = 0
KBO1 142135Z 20022KT 10/01 A3007 RMK A01 T00960010  RH  055%=      5-min Rain = 0
KBO1 142136Z 19024KT 10/01 A3007 RMK A01 T00960010  RH  055%=      5-min Rain = 0
KBO1 142137Z 19022KT 10/01 A3007 RMK A01 T00950009  RH  055%=      5-min Rain = 0
KBO1 142138Z 20021KT 10/01 A3007 RMK A01 T00960011  RH  055%=      5-min Rain = 0
KBO1 142139Z 19021KT 10/01 A3007 RMK A01 T00980014  RH  055%=      5-min Rain = 0
KBO1 142140Z 19022KT 10/01 A3007 RMK A01 T01000012  RH  055%=      5-min Rain = 0
KBO1 142141Z 19024KT 10/01 A3007 RMK A01 T01010011  RH  053%=      5-min Rain = 0
KBO1 142142Z 20025KT 10/01 A3007 RMK A01 T00990009  RH  053%=      5-min Rain = 0
KBO1 142143Z 20024KT 10/01 A3007 RMK A01 T00970008  RH  054%=      5-min Rain = 0
KBO1 142144Z 21024KT 10/01 A3007 RMK A01 T00970008  RH  054%=      5-min Rain = 0
KBO1 142145Z 20023KT 10/01 A3007 RMK A01 T00960005  RH  053%=      5-min Rain = 0
KBO1 142146Z 20022KT 10/01 A3007 RMK A01 T00960006  RH  054%=      5-min Rain = 0
KBO1 142147Z 20021KT 10/01 A3007 RMK A01 T00970008  RH  054%=      5-min Rain = 0
KBO1 142148Z 20022G27KT 10/01 A3007 RMK A01 T00980007  RH  053%=      5-min Rain = 0
KBO1 142149Z 20021KT 10/01 A3007 RMK A01 T00980007  RH  053%=      5-min Rain = 0
KBO1 142150Z 20020KT 10/01 A3007 RMK A01 T00980010  RH  054%=      5-min Rain = 0
KBO1 142151Z 19021KT 10/01 A3007 RMK A01 T01000007  RH  053%=      5-min Rain = 0
KBO1 142152Z 21022KT 10/01 A3007 RMK A01 T01000008  RH  053%=      5-min Rain = 0
KBO1 142153Z 21022KT 10/01 A3007 RMK A01 T01010005  RH  051%=      5-min Rain = 0
KBO1 142154Z 22020KT 10/01 A3007 RMK A01 T00990006  RH  052%=      5-min Rain = 0
KBO1 142155Z 21019KT 10/01 A3007 RMK A01 T00980007  RH  053%=      5-min Rain = 0
KBO1 142156Z 20020KT 10/01 A3007 RMK A01 T00980009  RH  054%=      5-min Rain = 0
KBO1 142157Z 20019G24KT 10/01 A3007 RMK A01 T01010010  RH  053%=      5-min Rain = 0
KBO1 142158Z 21021KT 10/01 A3006 RMK A01 T01020008  RH  052%=      5-min Rain = 0
KBO1 142159Z 21020KT 10/01 A3006 RMK A01 T01010005  RH  051%=      5-min Rain = 0
KBO1 142200Z 21018KT 10/01 A3007 RMK A01 T01000005  RH  052%=      5-min Rain = 0
KBO1 142201Z 21017G22KT 10/01 A3006 RMK A01 T01000006  RH  052%=      5-min Rain = 0
KBO1 142202Z 20022KT 10/01 A3006 RMK A01 T01020006  RH  051%=      5-min Rain = 0
KBO1 142203Z 20023KT 10/00 A3006 RMK A01 T01030003  RH  050%=      5-min Rain = 0
KBO1 142204Z 20021KT 10/00 A3006 RMK A01 T01000001  RH  050%=      5-min Rain = 0
KBO1 142205Z 22019KT 10/00 A3006 RMK A01 T01000003  RH  051%=      5-min Rain = 0
KBO1 142206Z 22021KT 10/00 A3006 RMK A01 T01020002  RH  050%=      5-min Rain = 0
KBO1 142207Z 21020KT 10/00 A3006 RMK A01 T01010003  RH  051%=      5-min Rain = 0
KBO1 142208Z 21024KT 10/00 A3006 RMK A01 T01010002  RH  050%=      5-min Rain = 0
KBO1 142209Z 21020KT 10/00 A3006 RMK A01 T01000000  RH  050%=      5-min Rain = 0
KBO1 142210Z 22020KT 10/00 A3006 RMK A01 T01000003  RH  051%=      5-min Rain = 0
KBO1 142211Z 21021KT 10/00 A3006 RMK A01 T01010004  RH  051%=      5-min Rain = 0
KBO1 142212Z 20023KT 10/00 A3006 RMK A01 T01000003  RH  051%=      5-min Rain = 0
KBO1 142213Z 20023KT 10/00 A3006 RMK A01 T01000002  RH  051%=      5-min Rain = 0
KBO1 142214Z 20024KT 10/00 A3006 RMK A01 T01000002  RH  051%=      5-min Rain = 0
KBO1 142215Z 21021KT 10/00 A3006 RMK A01 T01000002  RH  050%=      5-min Rain = 0
KBO1 142216Z 21019KT 10/00 A3006 RMK A01 T01000003  RH  051%=      5-min Rain = 0
KBO1 142217Z 20020KT 10/00 A3006 RMK A01 T01000003  RH  051%=      5-min Rain = 0
KBO1 142218Z 21016KT 10/00 A3006 RMK A01 T01010004  RH  051%=      5-min Rain = 0
KBO1 142219Z 21020KT 10/01 A3006 RMK A01 T01040006  RH  051%=      5-min Rain = 0
KBO1 142220Z 21023KT 10/00 A3006 RMK A01 T01030002  RH  049%=      5-min Rain = 0
KBO1 142221Z 21020KT 10/00 A3006 RMK A01 T01010003  RH  050%=      5-min Rain = 0
KBO1 142222Z 21017KT 10/01 A3006 RMK A01 T01030006  RH  051%=      5-min Rain = 0
KBO1 142223Z 22021KT 11/01 A3006 RMK A01 T01050006  RH  050%=      5-min Rain = 0
KBO1 142224Z 21020KT 10/00 A3006 RMK A01 T01040002  RH  049%=      5-min Rain = 0
KBO1 142225Z 21019KT 10/00 A3006 RMK A01 T01020003  RH  050%=      5-min Rain = 0
KBO1 142226Z 21019KT 10/00 A3006 RMK A01 T01030004  RH  051%=      5-min Rain = 0
KBO1 142227Z 20021KT 10/00 A3006 RMK A01 T01030002  RH  050%=      5-min Rain = 0
KBO1 142228Z 21021KT 10/00 A3006 RMK A01 T01040003  RH  050%=      5-min Rain = 0
KBO1 142229Z 21019KT 10/00 A3006 RMK A01 T01030003  RH  050%=      5-min Rain = 0
KBO1 142230Z 20020KT 10/00 A3006 RMK A01 T01030004  RH  050%=      5-min Rain = 0
KBO1 142231Z 20018KT 10/00 A3006 RMK A01 T01040004  RH  050%=      5-min Rain = 0
KBO1 142232Z 21020G25KT 11/00 A3006 RMK A01 T01050004  RH  050%=      5-min Rain = 0
KBO1 142233Z 21021KT 10/00 A3006 RMK A01 T01040002  RH  049%=      5-min Rain = 0
KBO1 142234Z 20019KT 10/00 A3006 RMK A01 T01030003  RH  050%=      5-min Rain = 0
KBO1 142235Z 19019KT 10/01 A3006 RMK A01 T01030005  RH  051%=      5-min Rain = 0
KBO1 142236Z 20021KT 10/00 A3006 RMK A01 T01030004  RH  050%=      5-min Rain = 0
KBO1 142237Z 20020KT 10/00 A3006 RMK A01 T01040004  RH  050%=      5-min Rain = 0
KBO1 142238Z 20019KT 10/01 A3006 RMK A01 T01030005  RH  050%=      5-min Rain = 0
KBO1 142239Z 20021KT 10/01 A3006 RMK A01 T01030005  RH  051%=      5-min Rain = 0
KBO1 142240Z 20019KT 10/01 A3006 RMK A01 T01030005  RH  051%=      5-min Rain = 0
KBO1 142241Z 19021KT 10/01 A3006 RMK A01 T01030006  RH  051%=      5-min Rain = 0
KBO1 142242Z 19021KT 10/01 A3006 RMK A01 T01020005  RH  051%=      5-min Rain = 0
KBO1 142243Z 20020KT 10/01 A3006 RMK A01 T01030005  RH  051%=      5-min Rain = 0
KBO1 142244Z 20017KT 10/01 A3006 RMK A01 T01020006  RH  051%=      5-min Rain = 0
KBO1 142245Z 20016KT 10/01 A3006 RMK A01 T01040008  RH  051%=      5-min Rain = 0
KBO1 142246Z 20019KT 11/01 A3006 RMK A01 T01060008  RH  051%=      5-min Rain = 0
KBO1 142247Z 20020KT 11/01 A3006 RMK A01 T01050006  RH  050%=      5-min Rain = 0
KBO1 142248Z 19019KT 10/01 A3006 RMK A01 T01040007  RH  051%=      5-min Rain = 0
KBO1 142249Z 19022KT 10/01 A3006 RMK A01 T01040006  RH  051%=      5-min Rain = 0
KBO1 142250Z 20017KT 10/01 A3005 RMK A01 T01030005  RH  051%=      5-min Rain = 0
KBO1 142251Z 19017KT 10/01 A3005 RMK A01 T01030006  RH  051%=      5-min Rain = 0
KBO1 142252Z 20017KT 10/01 A3005 RMK A01 T01030006  RH  051%=      5-min Rain = 0
KBO1 142253Z 20018KT 10/01 A3005 RMK A01 T01040006  RH  051%=      5-min Rain = 0
KBO1 142254Z 19018KT 10/01 A3005 RMK A01 T01040005  RH  050%=      5-min Rain = 0
KBO1 142255Z 19022KT 10/00 A3005 RMK A01 T01040003  RH  050%=      5-min Rain = 0
KBO1 142256Z 19019KT 10/00 A3005 RMK A01 T01020003  RH  050%=      5-min Rain = 0
KBO1 142257Z 19018KT 10/00 A3005 RMK A01 T01020003  RH  050%=      5-min Rain = 0
KBO1 142258Z 19019KT 10/00 A3005 RMK A01 T01020004  RH  051%=      5-min Rain = 0
KBO1 142259Z 19021KT 10/00 A3005 RMK A01 T01020003  RH  050%=      5-min Rain = 0
KBO1 142300Z 20019KT 10/00 A3005 RMK A01 T01010003  RH  050%=      5-min Rain = 0
KBO1 142301Z 19019KT 10/00 A3005 RMK A01 T01010003  RH  051%=      5-min Rain = 0
KBO1 142302Z 19018G23KT 10/00 A3005 RMK A01 T01010002  RH  050%=      5-min Rain = 0
KBO1 142303Z 19017KT 10/00 A3005 RMK A01 T01010003  RH  051%=      5-min Rain = 0
KBO1 142304Z 20020KT 10/00 A3005 RMK A01 T01020003  RH  050%=      5-min Rain = 0
KBO1 142305Z 20021KT 10/00 A3005 RMK A01 T01010001  RH  050%=      5-min Rain = 0
KBO1 142306Z 20019KT 10/00 A3005 RMK A01 T01010002  RH  050%=      5-min Rain = 0
KBO1 142307Z 19021KT 10/00 A3005 RMK A01 T01010003  RH  051%=      5-min Rain = 0
KBO1 142308Z 19020KT 10/00 A3005 RMK A01 T01000004  RH  051%=      5-min Rain = 0
KBO1 142309Z 19023KT 10/01 A3005 RMK A01 T01000005  RH  051%=      5-min Rain = 0
KBO1 142310Z 19022KT 10/00 A3005 RMK A01 T01000004  RH  051%=      5-min Rain = 0
KBO1 142311Z 19023KT 10/00 A3004 RMK A01 T00990003  RH  052%=      5-min Rain = 0
KBO1 142312Z 20022KT 10/00 A3004 RMK A01 T00980003  RH  052%=      5-min Rain = 0
KBO1 142313Z 20020KT 10/00 A3004 RMK A01 T00980004  RH  052%=      5-min Rain = 0
KBO1 142314Z 19018KT 10/00 A3005 RMK A01 T00980004  RH  052%=      5-min Rain = 0
KBO1 142315Z 20017KT 10/01 A3005 RMK A01 T00990005  RH  052%=      5-min Rain = 0
KBO1 142316Z 20019KT 10/01 A3004 RMK A01 T00990005  RH  052%=      5-min Rain = 0
KBO1 142317Z 19020KT 10/00 A3004 RMK A01 T00990004  RH  052%=      5-min Rain = 0
KBO1 142318Z 20019G25KT 10/00 A3005 RMK A01 T00990004  RH  052%=      5-min Rain = 0
KBO1 142319Z 20023KT 10/01 A3004 RMK A01 T00990005  RH  052%=      5-min Rain = 0
KBO1 142320Z 20022KT 10/00 A3004 RMK A01 T00980004  RH  052%=      5-min Rain = 0
KBO1 142321Z 20021KT 10/00 A3004 RMK A01 T00970004  RH  052%=      5-min Rain = 0
KBO1 142322Z 19017KT 10/01 A3004 RMK A01 T00970006  RH  053%=      5-min Rain = 0
KBO1 142323Z 19016KT 10/01 A3004 RMK A01 T00980007  RH  053%=      5-min Rain = 0
KBO1 142324Z 19017G22KT 10/01 A3004 RMK A01 T00980007  RH  053%=      5-min Rain = 0
KBO1 142325Z 19017KT 10/01 A3004 RMK A01 T00990008  RH  053%=      5-min Rain = 0
KBO1 142326Z 19018G24KT 10/01 A3004 RMK A01 T01000007  RH  052%=      5-min Rain = 0
KBO1 142327Z 19019KT 10/01 A3004 RMK A01 T01000007  RH  052%=      5-min Rain = 0
KBO1 142328Z 19019KT 10/01 A3004 RMK A01 T00990006  RH  052%=      5-min Rain = 0
KBO1 142329Z 19021G26KT 10/01 A3004 RMK A01 T00990007  RH  053%=      5-min Rain = 0
KBO1 142330Z 19022KT 10/01 A3004 RMK A01 T00990006  RH  053%=      5-min Rain = 0
KBO1 142331Z 19020KT 10/01 A3004 RMK A01 T00980006  RH  053%=      5-min Rain = 0
KBO1 142332Z 19019KT 10/01 A3004 RMK A01 T00980007  RH  053%=      5-min Rain = 0
KBO1 142333Z 19019KT 10/01 A3004 RMK A01 T00980007  RH  053%=      5-min Rain = 0
KBO1 142334Z 19019KT 10/01 A3005 RMK A01 T00980007  RH  053%=      5-min Rain = 0
KBO1 142335Z 19021G26KT 10/01 A3004 RMK A01 T00980005  RH  053%=      5-min Rain = 0
KBO1 142336Z 19022KT 10/01 A3004 RMK A01 T00980005  RH  052%=      5-min Rain = 0
KBO1 142337Z 19021KT 10/01 A3004 RMK A01 T00970005  RH  053%=      5-min Rain = 0
KBO1 142338Z 19019KT 10/01 A3004 RMK A01 T00970005  RH  053%=      5-min Rain = 0
KBO1 142339Z 18015KT 10/01 A3005 RMK A01 T00960010  RH  055%=      5-min Rain = 0
KBO1 142340Z 18019KT 10/01 A3004 RMK A01 T00950014  RH  057%=      5-min Rain = 0
KBO1 142341Z 18019KT 09/02 A3004 RMK A01 T00930016  RH  059%=      5-min Rain = 0
KBO1 142342Z 18017KT 09/02 A3004 RMK A01 T00910017  RH  060%=      5-min Rain = 0
KBO1 142343Z 18015KT 09/02 A3005 RMK A01 T00900017  RH  060%=      5-min Rain = 0
KBO1 142344Z 18018KT 09/02 A3005 RMK A01 T00890017  RH  061%=      5-min Rain = 0
KBO1 142345Z 17015KT 09/02 A3005 RMK A01 T00870018  RH  062%=      5-min Rain = 0
KBO1 142346Z 17017KT 09/02 A3005 RMK A01 T00860018  RH  062%=      5-min Rain = 0
KBO1 142347Z 17018KT 08/02 A3005 RMK A01 T00840018  RH  063%=      5-min Rain = 0
KBO1 142348Z 17018KT 08/02 A3005 RMK A01 T00830019  RH  064%=      5-min Rain = 0
KBO1 142349Z 17016KT 08/02 A3005 RMK A01 T00820019  RH  065%=      5-min Rain = 0
KBO1 142350Z 17017KT 08/02 A3005 RMK A01 T00810019  RH  065%=      5-min Rain = 0
KBO1 142351Z 17013KT 08/02 A3005 RMK A01 T00800019  RH  065%=      5-min Rain = 0
KBO1 142352Z 18016KT 08/02 A3005 RMK A01 T00800019  RH  066%=      5-min Rain = 0
KBO1 142353Z 17017KT 08/02 A3004 RMK A01 T00790019  RH  066%=      5-min Rain = 0
KBO1 142354Z 17016KT 08/02 A3005 RMK A01 T00780019  RH  066%=      5-min Rain = 0
KBO1 142355Z 17016KT 08/02 A3005 RMK A01 T00770019  RH  067%=      5-min Rain = 0
KBO1 142356Z 17015KT 08/02 A3004 RMK A01 T00760019  RH  067%=      5-min Rain = 0
KBO1 142357Z 17015KT 08/02 A3004 RMK A01 T00750019  RH  068%=      5-min Rain = 0
KBO1 142358Z 17017KT 07/02 A3004 RMK A01 T00740019  RH  068%=      5-min Rain = 0
KBO1 142359Z 18017KT 07/02 A3004 RMK A01 T00740019  RH  068%=      5-min Rain = 0
KBO1 150000Z 18018KT 07/02 A3004 RMK A01 T00730019  RH  069%=      5-min Rain = 0
KBO1 150001Z 18019KT 07/02 A3004 RMK A01 T00720019  RH  069%=      5-min Rain = 0
KBO1 150002Z 18017KT 07/02 A3005 RMK A01 T00710019  RH  069%=      5-min Rain = 0
KBO1 150003Z 18017KT 07/02 A3004 RMK A01 T00700019  RH  070%=      5-min Rain = 0
KBO1 150004Z 18018KT 07/02 A3004 RMK A01 T00690018  RH  070%=      5-min Rain = 0
KBO1 150005Z 18017KT 07/02 A3004 RMK A01 T00680018  RH  070%=      5-min Rain = 0
KBO1 150006Z 18019KT 07/02 A3004 RMK A01 T00670018  RH  071%=      5-min Rain = 0
KBO1 150007Z 18018KT 07/02 A3004 RMK A01 T00660017  RH  071%=      5-min Rain = 0
KBO1 150008Z 18018KT 07/02 A3004 RMK A01 T00650017  RH  071%=      5-min Rain = 0
KBO1 150009Z 18019KT 07/02 A3004 RMK A01 T00650017  RH  072%=      5-min Rain = 0
KBO1 150010Z 18019KT 06/02 A3004 RMK A01 T00640017  RH  072%=      5-min Rain = 0
KBO1 150011Z 18017KT 06/02 A3004 RMK A01 T00640017  RH  072%=      5-min Rain = 0
KBO1 150012Z 17016KT 06/02 A3004 RMK A01 T00630017  RH  072%=      5-min Rain = 0
KBO1 150013Z 17014KT 06/02 A3004 RMK A01 T00630016  RH  072%=      5-min Rain = 0
KBO1 150014Z 18016KT 06/02 A3004 RMK A01 T00610016  RH  073%=      5-min Rain = 0
KBO1 150015Z 18016KT 06/02 A3004 RMK A01 T00600016  RH  073%=      5-min Rain = 0
KBO1 150016Z 18017KT 06/02 A3004 RMK A01 T00600016  RH  074%=      5-min Rain = 0
KBO1 150017Z 18015KT 06/02 A3004 RMK A01 T00590016  RH  074%=      5-min Rain = 0
KBO1 150018Z 17014KT 06/02 A3004 RMK A01 T00580016  RH  074%=      5-min Rain = 0
KBO1 150019Z 18015KT 06/02 A3004 RMK A01 T00570016  RH  075%=      5-min Rain = 0
KBO1 150020Z 18016KT 06/02 A3004 RMK A01 T00570016  RH  075%=      5-min Rain = 0
KBO1 150021Z 18016KT 06/02 A3004 RMK A01 T00560016  RH  075%=      5-min Rain = 0
KBO1 150022Z 17016KT 06/02 A3004 RMK A01 T00550016  RH  076%=      5-min Rain = 0
KBO1 150023Z 17016KT 05/02 A3004 RMK A01 T00540015  RH  076%=      5-min Rain = 0
KBO1 150024Z 17017KT 05/02 A3004 RMK A01 T00540016  RH  076%=      5-min Rain = 0
KBO1 150025Z 17018KT 05/02 A3004 RMK A01 T00540016  RH  077%=      5-min Rain = 0
KBO1 150026Z 18015KT 05/02 A3005 RMK A01 T00530016  RH  077%=      5-min Rain = 0
KBO1 150027Z 17015KT 05/02 A3005 RMK A01 T00520015  RH  077%=      5-min Rain = 0
KBO1 150028Z 17016KT 05/02 A3005 RMK A01 T00510015  RH  078%=      5-min Rain = 0
KBO1 150029Z 17014KT 05/02 A3005 RMK A01 T00500015  RH  078%=      5-min Rain = 0
KBO1 150030Z 18014KT 05/01 A3005 RMK A01 T00490014  RH  078%=      5-min Rain = 0
KBO1 150031Z 17015KT 05/01 A3005 RMK A01 T00480014  RH  079%=      5-min Rain = 0
KBO1 150032Z 18016KT 05/01 A3004 RMK A01 T00470014  RH  079%=      5-min Rain = 0
KBO1 150033Z 18016KT 05/02 A3004 RMK A01 T00470015  RH  080%=      5-min Rain = 0
KBO1 150034Z 18015KT 05/02 A3004 RMK A01 T00470015  RH  080%=      5-min Rain = 0
KBO1 150035Z 18015KT 05/01 A3004 RMK A01 T00460014  RH  080%=      5-min Rain = 0
KBO1 150036Z 18017KT 05/02 A3004 RMK A01 T00450015  RH  081%=      5-min Rain = 0
KBO1 150037Z 18016KT 05/02 A3005 RMK A01 T00450015  RH  081%=      5-min Rain = 0
KBO1 150038Z 18017KT 05/02 A3005 RMK A01 T00450015  RH  081%=      5-min Rain = 0
KBO1 150039Z 18018KT 05/02 A3005 RMK A01 T00450015  RH  081%=      5-min Rain = 0
KBO1 150040Z 18016KT 04/02 A3005 RMK A01 T00440015  RH  081%=      5-min Rain = 0
KBO1 150041Z 18019KT 04/02 A3005 RMK A01 T00440015  RH  081%=      5-min Rain = 0
KBO1 150042Z 18018KT 04/02 A3005 RMK A01 T00440015  RH  081%=      5-min Rain = 0
KBO1 150043Z 18017KT 04/02 A3005 RMK A01 T00440015  RH  082%=      5-min Rain = 0
KBO1 150044Z 18018KT 04/01 A3005 RMK A01 T00430014  RH  082%=      5-min Rain = 0
KBO1 150045Z 18015KT 04/01 A3005 RMK A01 T00420014  RH  082%=      5-min Rain = 0
KBO1 150046Z 18017KT 04/01 A3005 RMK A01 T00410014  RH  082%=      5-min Rain = 0
KBO1 150047Z 18017KT 04/01 A3005 RMK A01 T00410014  RH  083%=      5-min Rain = 0
KBO1 150048Z 18017KT 04/01 A3005 RMK A01 T00400014  RH  083%=      5-min Rain = 0
KBO1 150049Z 18016KT 04/01 A3005 RMK A01 T00400014  RH  083%=      5-min Rain = 0
KBO1 150050Z 18017KT 04/01 A3005 RMK A01 T00390014  RH  084%=      5-min Rain = 0
KBO1 150051Z 18017KT 04/01 A3005 RMK A01 T00380014  RH  084%=      5-min Rain = 0
KBO1 150052Z 18017KT 04/01 A3005 RMK A01 T00380014  RH  084%=      5-min Rain = 0
KBO1 150053Z 18016KT 04/01 A3005 RMK A01 T00370013  RH  085%=      5-min Rain = 0
KBO1 150054Z 18015KT 04/01 A3005 RMK A01 T00360013  RH  085%=      5-min Rain = 0
KBO1 150055Z 18015KT 04/01 A3005 RMK A01 T00350013  RH  085%=      5-min Rain = 0
KBO1 150056Z 17014KT 03/01 A3005 RMK A01 T00340013  RH  086%=      5-min Rain = 0
KBO1 150057Z 18016KT 03/01 A3005 RMK A01 T00330013  RH  086%=      5-min Rain = 0
KBO1 150058Z 18015KT 03/01 A3005 RMK A01 T00330013  RH  087%=      5-min Rain = 0
KBO1 150059Z 18014KT 03/01 A3005 RMK A01 T00320013  RH  087%=      5-min Rain = 0
KBO1 150100Z 18015KT 03/01 A3005 RMK A01 T00320013  RH  087%=      5-min Rain = 0
KBO1 150101Z 18016KT 03/01 A3005 RMK A01 T00310013  RH  088%=      5-min Rain = 0
KBO1 150102Z 18015KT 03/01 A3005 RMK A01 T00310013  RH  088%=      5-min Rain = 0
KBO1 150103Z 18015KT 03/01 A3005 RMK A01 T00310013  RH  088%=      5-min Rain = 0
KBO1 150104Z 18015KT 03/01 A3005 RMK A01 T00310014  RH  089%=      5-min Rain = 0
KBO1 150105Z 18015KT 03/01 A3006 RMK A01 T00300013  RH  089%=      5-min Rain = 0
KBO1 150106Z 18015KT 03/01 A3006 RMK A01 T00300013  RH  089%=      5-min Rain = 0
KBO1 150107Z 18015KT 03/01 A3006 RMK A01 T00300013  RH  089%=      5-min Rain = 0
KBO1 150108Z 18015G20KT 03/01 A3006 RMK A01 T00300013  RH  089%=      5-min Rain = 0
KBO1 150109Z 18015KT 03/01 A3006 RMK A01 T00300014  RH  089%=      5-min Rain = 0
KBO1 150110Z 18016KT 03/01 A3006 RMK A01 T00300013  RH  089%=      5-min Rain = 0
KBO1 150111Z 18016KT 03/01 A3006 RMK A01 T00290013  RH  089%=      5-min Rain = 0
KBO1 150112Z 18015KT 03/01 A3006 RMK A01 T00290013  RH  089%=      5-min Rain = 0
KBO1 150113Z 18015KT 03/01 A3006 RMK A01 T00290013  RH  089%=      5-min Rain = 0
KBO1 150114Z 18014KT 03/01 A3006 RMK A01 T00280012  RH  089%=      5-min Rain = 0
KBO1 150115Z 18015KT 03/01 A3006 RMK A01 T00270012  RH  089%=      5-min Rain = 0
KBO1 150116Z 18014KT 03/01 A3006 RMK A01 T00270012  RH  090%=      5-min Rain = 0
KBO1 150117Z 18016G21KT 03/01 A3006 RMK A01 T00270012  RH  090%=      5-min Rain = 0
KBO1 150118Z 18016KT 03/01 A3006 RMK A01 T00270013  RH  091%=      5-min Rain = 0
KBO1 150119Z 18018KT 03/01 A3006 RMK A01 T00260013  RH  091%=      5-min Rain = 0
KBO1 150120Z 18015KT 03/01 A3006 RMK A01 T00270013  RH  091%=      5-min Rain = 0
KBO1 150121Z 18016KT 03/01 A3006 RMK A01 T00270013  RH  091%=      5-min Rain = 0
KBO1 150122Z 18015KT 03/01 A3006 RMK A01 T00260013  RH  091%=      5-min Rain = 0
KBO1 150123Z 18016KT 03/01 A3006 RMK A01 T00260012  RH  091%=      5-min Rain = 0
KBO1 150124Z 18017KT 03/01 A3006 RMK A01 T00250012  RH  091%=      5-min Rain = 0
KBO1 150125Z 18017KT 03/01 A3006 RMK A01 T00250013  RH  092%=      5-min Rain = 0
KBO1 150126Z 18016KT 02/01 A3006 RMK A01 T00240012  RH  092%=      5-min Rain = 0
KBO1 150127Z 18016KT 02/01 A3006 RMK A01 T00240012  RH  092%=      5-min Rain = 0
KBO1 150128Z 18015KT 02/01 A3006 RMK A01 T00240012  RH  092%=      5-min Rain = 0
KBO1 150129Z 18014KT 02/01 A3007 RMK A01 T00230012  RH  092%=      5-min Rain = 0
KBO1 150130Z 18014KT 02/01 A3007 RMK A01 T00230012  RH  093%=      5-min Rain = 0
KBO1 150131Z 18015KT 02/01 A3007 RMK A01 T00220011  RH  093%=      5-min Rain = 0
KBO1 150132Z 18015KT 02/01 A3007 RMK A01 T00210011  RH  093%=      5-min Rain = 0
KBO1 150133Z 18015KT 02/01 A3007 RMK A01 T00210011  RH  093%=      5-min Rain = 0
KBO1 150134Z 18015KT 02/01 A3007 RMK A01 T00210011  RH  093%=      5-min Rain = 0
KBO1 150135Z 18014KT 02/01 A3007 RMK A01 T00200011  RH  094%=      5-min Rain = 0
KBO1 150136Z 18014KT 02/01 A3007 RMK A01 T00200011  RH  094%=      5-min Rain = 0
KBO1 150137Z 18014KT 02/01 A3007 RMK A01 T00190011  RH  094%=      5-min Rain = 0
KBO1 150138Z 18016KT 02/01 A3007 RMK A01 T00180010  RH  094%=      5-min Rain = 0
KBO1 150139Z 18015KT 02/01 A3007 RMK A01 T00180011  RH  095%=      5-min Rain = 0
KBO1 150140Z 18016KT 02/01 A3007 RMK A01 T00180011  RH  095%=      5-min Rain = 0
KBO1 150141Z 18014KT 02/01 A3007 RMK A01 T00180011  RH  095%=      5-min Rain = 0
KBO1 150142Z 18013KT 02/01 A3007 RMK A01 T00170010  RH  095%=      5-min Rain = 0
KBO1 150143Z 18016KT 02/01 A3007 RMK A01 T00170010  RH  095%=      5-min Rain = 0
KBO1 150144Z 18016KT 02/01 A3007 RMK A01 T00170011  RH  096%=      5-min Rain = 0
KBO1 150145Z 18013KT 02/01 A3007 RMK A01 T00160010  RH  096%=      5-min Rain = 0
KBO1 150146Z 18015KT 02/01 A3007 RMK A01 T00160010  RH  096%=      5-min Rain = 0
KBO1 150147Z 18014KT 02/01 A3007 RMK A01 T00160010  RH  096%=      5-min Rain = 0
KBO1 150148Z 18014KT 02/01 A3007 RMK A01 T00150010  RH  096%=      5-min Rain = 0
KBO1 150149Z 19013G18KT 02/01 A3007 RMK A01 T00150009  RH  096%=      5-min Rain = 0
KBO1 150150Z 18015KT 01/01 A3007 RMK A01 T00140009  RH  096%=      5-min Rain = 0
KBO1 150151Z 18014KT 01/01 A3007 RMK A01 T00140010  RH  097%=      5-min Rain = 0
KBO1 150152Z 18015KT 01/01 A3007 RMK A01 T00140010  RH  097%=      5-min Rain = 0
KBO1 150153Z 18014KT 01/01 A3007 RMK A01 T00140010  RH  097%=      5-min Rain = 0
KBO1 150154Z 18013KT 01/01 A3008 RMK A01 T00140010  RH  097%=      5-min Rain = 0
KBO1 150155Z 18014KT 01/01 A3008 RMK A01 T00130009  RH  097%=      5-min Rain = 0
KBO1 150156Z 18014KT 01/01 A3008 RMK A01 T00130009  RH  097%=      5-min Rain = 0
KBO1 150157Z 18015KT 01/01 A3008 RMK A01 T00130009  RH  097%=      5-min Rain = 0
KBO1 150158Z 19015KT 01/01 A3008 RMK A01 T00130010  RH  097%=      5-min Rain = 0
KBO1 150159Z 18016KT 01/01 A3008 RMK A01 T00130009  RH  098%=      5-min Rain = 0
KBO1 150200Z 18016KT 01/01 A3008 RMK A01 T00130010  RH  098%=      5-min Rain = 0
KBO1 150201Z 18014KT 01/01 A3008 RMK A01 T00130010  RH  098%=      5-min Rain = 0
KBO1 150202Z 19015KT 01/01 A3008 RMK A01 T00130009  RH  098%=      5-min Rain = 0
KBO1 150203Z 19017KT 01/01 A3008 RMK A01 T00120009  RH  098%=      5-min Rain = 0
KBO1 150204Z 18017KT 01/01 A3008 RMK A01 T00120009  RH  098%=      5-min Rain = 0
KBO1 150205Z 18014KT 01/01 A3008 RMK A01 T00120010  RH  098%=      5-min Rain = 0
KBO1 150206Z 18015KT 01/01 A3008 RMK A01 T00120010  RH  098%=      5-min Rain = 0
KBO1 150207Z 18015KT 01/01 A3008 RMK A01 T00120010  RH  098%=      5-min Rain = 0
KBO1 150208Z 18013KT 01/01 A3008 RMK A01 T00110009  RH  098%=      5-min Rain = 0
KBO1 150209Z 18014KT 01/01 A3008 RMK A01 T00110009  RH  098%=      5-min Rain = 0
KBO1 150210Z 18016KT 01/01 A3008 RMK A01 T00110009  RH  099%=      5-min Rain = 0
KBO1 150211Z 18013KT 01/01 A3008 RMK A01 T00100009  RH  099%=      5-min Rain = 0
KBO1 150212Z 18015KT 01/01 A3008 RMK A01 T00100009  RH  099%=      5-min Rain = 0
KBO1 150213Z 18016KT 01/01 A3008 RMK A01 T00100008  RH  099%=      5-min Rain = 0
KBO1 150214Z 18017KT 01/01 A3008 RMK A01 T00100009  RH  099%=      5-min Rain = 0
KBO1 150215Z 19015KT 01/01 A3008 RMK A01 T00100009  RH  100%=      5-min Rain = 0
KBO1 150216Z 18015G20KT 01/01 A3008 RMK A01 T00100009  RH  100%=      5-min Rain = 0
KBO1 150217Z 18016KT 01/01 A3008 RMK A01 T00090009  RH  100%=      5-min Rain = 0
KBO1 150218Z 18017KT 01/01 A3008 RMK A01 T00090009  RH  100%=      5-min Rain = 0
KBO1 150219Z 18016KT 01/01 A3008 RMK A01 T00090009  RH  100%=      5-min Rain = 0
KBO1 150220Z 18019KT 01/01 A3008 RMK A01 T00090009  RH  100%=      5-min Rain = 0
KBO1 150221Z 18017KT 01/01 A3008 RMK A01 T00090009  RH  100%=      5-min Rain = 0
KBO1 150222Z 18018KT 01/01 A3008 RMK A01 T00100010  RH  100%=      5-min Rain = 0
KBO1 150223Z 18017KT 01/01 A3008 RMK A01 T00100010  RH  100%=      5-min Rain = 0
KBO1 150224Z 19017KT 01/01 A3008 RMK A01 T00100010  RH  100%=      5-min Rain = 0
KBO1 150225Z 18018KT 01/01 A3008 RMK A01 T00100010  RH  100%=      5-min Rain = 0
KBO1 150226Z 19015KT 01/01 A3008 RMK A01 T00100010  RH  100%=      5-min Rain = 0
KBO1 150227Z 19017KT 01/01 A3008 RMK A01 T00090009  RH  100%=      5-min Rain = 0
KBO1 150228Z 19016KT 01/01 A3008 RMK A01 T00090009  RH  100%=      5-min Rain = 0
KBO1 150229Z 18017KT 01/01 A3008 RMK A01 T00090009  RH  100%=      5-min Rain = 0
KBO1 150230Z 18018KT 01/01 A3008 RMK A01 T00090009  RH  100%=      5-min Rain = 0
KBO1 150231Z 19017KT 01/01 A3008 RMK A01 T00090009  RH  100%=      5-min Rain = 0
KBO1 150232Z 18017KT 01/01 A3008 RMK A01 T00090009  RH  100%=      5-min Rain = 0
KBO1 150233Z 18018KT 01/01 A3007 RMK A01 T00090009  RH  100%=      5-min Rain = 0
KBO1 150234Z 18018KT 01/01 A3008 RMK A01 T00090009  RH  100%=      5-min Rain = 0
KBO1 150235Z 19019KT 01/01 A3008 RMK A01 T00090009  RH  100%=      5-min Rain = 0
KBO1 150236Z 19019KT 01/01 A3008 RMK A01 T00090009  RH  100%=      5-min Rain = 0
KBO1 150237Z 18018KT 01/01 A3008 RMK A01 T00090009  RH  100%=      5-min Rain = 0
KBO1 150238Z 18018KT 01/01 A3008 RMK A01 T00090009  RH  100%=      5-min Rain = 0
KBO1 150239Z 19018KT 01/01 A3008 RMK A01 T00090009  RH  100%=      5-min Rain = 0
KBO1 150240Z 18019KT 01/01 A3008 RMK A01 T00090009  RH  100%=      5-min Rain = 0
KBO1 150241Z 18019KT 01/01 A3008 RMK A01 T00090009  RH  100%=      5-min Rain = 0
KBO1 150242Z 18017KT 01/01 A3008 RMK A01 T00090009  RH  100%=      5-min Rain = 0
KBO1 150243Z 18019KT 01/01 A3007 RMK A01 T00080008  RH  100%=      5-min Rain = 0
KBO1 150244Z 18019KT 01/01 A3007 RMK A01 T00080008  RH  100%=      5-min Rain = 0
KBO1 150245Z 18017KT 01/01 A3007 RMK A01 T00080008  RH  100%=      5-min Rain = 0
KBO1 150246Z 18017KT 01/01 A3008 RMK A01 T00080008  RH  100%=      5-min Rain = 0
KBO1 150247Z 18019G25KT 01/01 A3007 RMK A01 T00080008  RH  100%=      5-min Rain = 0
KBO1 150248Z 18017KT 01/01 A3008 RMK A01 T00080008  RH  100%=      5-min Rain = 0
KBO1 150249Z 18017G23KT 01/01 A3008 RMK A01 T00080008  RH  100%=      5-min Rain = 0
KBO1 150250Z 19019KT 01/01 A3008 RMK A01 T00070007  RH  100%=      5-min Rain = 0
KBO1 150251Z 18019KT 01/01 A3008 RMK A01 T00080008  RH  100%=      5-min Rain = 0
KBO1 150252Z 19017KT 01/01 A3008 RMK A01 T00080008  RH  100%=      5-min Rain = 0
KBO1 150253Z 19017KT 01/01 A3008 RMK A01 T00080008  RH  100%=      5-min Rain = 0
KBO1 150254Z 19016KT 01/01 A3008 RMK A01 T00080008  RH  100%=      5-min Rain = 0
KBO1 150255Z 19018KT 01/01 A3008 RMK A01 T00080008  RH  100%=      5-min Rain = 0
KBO1 150256Z 19016KT 01/01 A3008 RMK A01 T00080008  RH  100%=      5-min Rain = 0
KBO1 150257Z 19017KT 01/01 A3008 RMK A01 T00080008  RH  100%=      5-min Rain = 0
KBO1 150258Z 19015KT 01/01 A3008 RMK A01 T00080008  RH  100%=      5-min Rain = 0
KBO1 150259Z 19015KT 01/01 A3008 RMK A01 T00070007  RH  100%=      5-min Rain = 0
KBO1 150300Z 19017KT 01/01 A3008 RMK A01 T00070007  RH  100%=      5-min Rain = 0
KBO1 150301Z 19015KT 01/01 A3008 RMK A01 T00070007  RH  100%=      5-min Rain = 0
KBO1 150302Z 19016KT 01/01 A3008 RMK A01 T00070007  RH  100%=      5-min Rain = 0
KBO1 150303Z 19017KT 01/01 A3008 RMK A01 T00080008  RH  100%=      5-min Rain = 0
KBO1 150304Z 19017KT 01/01 A3009 RMK A01 T00070007  RH  100%=      5-min Rain = 0
KBO1 150305Z 19016KT 01/01 A3009 RMK A01 T00070007  RH  100%=      5-min Rain = 0
KBO1 150306Z 19016KT 01/01 A3008 RMK A01 T00080008  RH  100%=      5-min Rain = 0
KBO1 150307Z 19017KT 01/01 A3008 RMK A01 T00070007  RH  100%=      5-min Rain = 0
KBO1 150308Z 19020KT 01/01 A3008 RMK A01 T00070007  RH  100%=      5-min Rain = 0
KBO1 150309Z 19019KT 01/01 A3008 RMK A01 T00080008  RH  100%=      5-min Rain = 0
KBO1 150310Z 19019G24KT 01/01 A3008 RMK A01 T00080008  RH  100%=      5-min Rain = 0
KBO1 150311Z 19015KT 01/01 A3008 RMK A01 T00080008  RH  100%=      5-min Rain = 0
KBO1 150312Z 19017KT 01/01 A3008 RMK A01 T00080008  RH  100%=      5-min Rain = 0
KBO1 150313Z 19018KT 01/01 A3008 RMK A01 T00080008  RH  100%=      5-min Rain = 0
KBO1 150314Z 19016KT 01/01 A3008 RMK A01 T00080008  RH  100%=      5-min Rain = 0
KBO1 150315Z 19017KT 01/01 A3008 RMK A01 T00070007  RH  100%=      5-min Rain = 0
KBO1 150316Z 19019KT 01/01 A3008 RMK A01 T00070007  RH  100%=      5-min Rain = 0
KBO1 150317Z 19017KT 01/01 A3008 RMK A01 T00070007  RH  100%=      5-min Rain = 0
KBO1 150318Z 19019KT 01/01 A3008 RMK A01 T00070007  RH  100%=      5-min Rain = 0
KBO1 150319Z 19020KT 01/01 A3008 RMK A01 T00060006  RH  100%=      5-min Rain = 0
KBO1 150320Z 19018KT 01/01 A3008 RMK A01 T00070007  RH  100%=      5-min Rain = 0
KBO1 150321Z 19018KT 01/01 A3008 RMK A01 T00070007  RH  100%=      5-min Rain = 0
KBO1 150322Z 19017KT 01/01 A3008 RMK A01 T00060006  RH  100%=      5-min Rain = 0
KBO1 150323Z 19016KT 01/01 A3008 RMK A01 T00060006  RH  100%=      5-min Rain = 0
KBO1 150324Z 19019KT 01/01 A3008 RMK A01 T00060006  RH  100%=      5-min Rain = 0
KBO1 150325Z 19016G21KT 01/01 A3008 RMK A01 T00060005  RH  100%=      5-min Rain = 0
KBO1 150326Z 19018KT 01/01 A3008 RMK A01 T00060006  RH  100%=      5-min Rain = 0
KBO1 150327Z 19018KT 01/01 A3008 RMK A01 T00050005  RH  100%=      5-min Rain = 0
KBO1 150328Z 19016KT 01/01 A3009 RMK A01 T00060006  RH  100%=      5-min Rain = 0
KBO1 150329Z 19018KT 01/01 A3009 RMK A01 T00060005  RH  100%=      5-min Rain = 0
KBO1 150330Z 19018KT 01/01 A3009 RMK A01 T00050005  RH  100%=      5-min Rain = 0
KBO1 150331Z 19017KT 01/01 A3009 RMK A01 T00060006  RH  100%=      5-min Rain = 0
KBO1 150332Z 19015KT 01/01 A3009 RMK A01 T00060006  RH  100%=      5-min Rain = 0
KBO1 150333Z 19016KT 01/01 A3009 RMK A01 T00050005  RH  100%=      5-min Rain = 0
KBO1 150334Z 19017KT 01/01 A3009 RMK A01 T00050005  RH  100%=      5-min Rain = 0
KBO1 150335Z 19017KT 01/01 A3009 RMK A01 T00050005  RH  100%=      5-min Rain = 0
KBO1 150336Z 19018KT 01/00 A3009 RMK A01 T00050004  RH  100%=      5-min Rain = 0
KBO1 150337Z 19019KT 01/01 A3009 RMK A01 T00050005  RH  100%=      5-min Rain = 0
KBO1 150338Z 19017KT 01/01 A3009 RMK A01 T00050005  RH  100%=      5-min Rain = 0
KBO1 150339Z 19017KT 00/00 A3009 RMK A01 T00040004  RH  100%=      5-min Rain = 0
KBO1 150340Z 19018KT 00/00 A3009 RMK A01 T00040004  RH  100%=      5-min Rain = 0
KBO1 150341Z 19017KT 00/00 A3009 RMK A01 T00040004  RH  100%=      5-min Rain = 0
KBO1 150342Z 19018KT 00/00 A3009 RMK A01 T00040004  RH  100%=      5-min Rain = 0
KBO1 150343Z 19018KT 00/00 A3009 RMK A01 T00040004  RH  100%=      5-min Rain = 0
KBO1 150344Z 19017KT 00/00 A3009 RMK A01 T00030003  RH  100%=      5-min Rain = 0
KBO1 150345Z 19018KT 00/00 A3009 RMK A01 T00030003  RH  100%=      5-min Rain = 0
KBO1 150346Z 19017KT 00/00 A3009 RMK A01 T00030003  RH  100%=      5-min Rain = 0
KBO1 150347Z 19018KT 00/00 A3009 RMK A01 T00030003  RH  100%=      5-min Rain = 0
KBO1 150348Z 19016KT 00/00 A3009 RMK A01 T00030003  RH  100%=      5-min Rain = 0
KBO1 150349Z 19019KT 00/00 A3009 RMK A01 T00020002  RH  100%=      5-min Rain = 0
KBO1 150350Z 19017KT 00/00 A3009 RMK A01 T00020002  RH  100%=      5-min Rain = 0
KBO1 150351Z 19017KT 00/00 A3009 RMK A01 T00020002  RH  100%=      5-min Rain = 0
KBO1 150352Z 19015KT 00/00 A3009 RMK A01 T00020002  RH  100%=      5-min Rain = 0
KBO1 150353Z 19018KT 00/00 A3009 RMK A01 T00010001  RH  100%=      5-min Rain = 0
KBO1 150354Z 19016KT 00/00 A3009 RMK A01 T00010001  RH  100%=      5-min Rain = 0
KBO1 150355Z 19017KT 00/00 A3009 RMK A01 T00010001  RH  100%=      5-min Rain = 0
KBO1 150356Z 19017KT 00/00 A3009 RMK A01 T00010001  RH  100%=      5-min Rain = 0
KBO1 150357Z 19017KT 00/00 A3009 RMK A01 T00010001  RH  100%=      5-min Rain = 0
KBO1 150358Z 19018KT 00/00 A3009 RMK A01 T00010001  RH  100%=      5-min Rain = 0
KBO1 150359Z 19016KT 00/00 A3009 RMK A01 T00010001  RH  100%=      5-min Rain = 0
KBO1 150400Z 19017KT 00/00 A3009 RMK A01 T00010001  RH  100%=      5-min Rain = 0
KBO1 150401Z 19016KT 00/00 A3009 RMK A01 T00010001  RH  100%=      5-min Rain = 0
KBO1 150402Z 19018KT 00/00 A3009 RMK A01 T00010001  RH  100%=      5-min Rain = 0
KBO1 150403Z 19017KT 00/00 A3009 RMK A01 T00010001  RH  100%=      5-min Rain = 0
KBO1 150404Z 19019KT 00/00 A3009 RMK A01 T00010001  RH  100%=      5-min Rain = 0
KBO1 150405Z 19017KT 00/00 A3009 RMK A01 T00010001  RH  100%=      5-min Rain = 0
KBO1 150406Z 19018KT 00/00 A3009 RMK A01 T00010001  RH  100%=      5-min Rain = 0
KBO1 150407Z 19019KT 00/00 A3009 RMK A01 T00010001  RH  100%=      5-min Rain = 0
KBO1 150408Z 19017KT 00/00 A3009 RMK A01 T00010001  RH  100%=      5-min Rain = 0
KBO1 150409Z 19019KT 00/00 A3009 RMK A01 T00020002  RH  100%=      5-min Rain = 0
KBO1 150410Z 19018KT 00/00 A3009 RMK A01 T00010001  RH  100%=      5-min Rain = 0
KBO1 150411Z 19020KT 00/00 A3009 RMK A01 T00020001  RH  100%=      5-min Rain = 0
KBO1 150412Z 19017G22KT 00/00 A3009 RMK A01 T00020002  RH  100%=      5-min Rain = 0
KBO1 150413Z 19017KT 00/00 A3009 RMK A01 T00020002  RH  100%=      5-min Rain = 0
KBO1 150414Z 19018G23KT 00/00 A3009 RMK A01 T00020002  RH  100%=      5-min Rain = 0
KBO1 150415Z 19020KT 00/00 A3009 RMK A01 T00010001  RH  100%=      5-min Rain = 0
KBO1 150416Z 19018KT 00/00 A3009 RMK A01 T00010001  RH  100%=      5-min Rain = 0
KBO1 150417Z 19018KT 00/00 A3009 RMK A01 T00010001  RH  100%=      5-min Rain = 0
KBO1 150418Z 19019KT 00/00 A3009 RMK A01 T00010001  RH  100%=      5-min Rain = 0
KBO1 150419Z 19018KT 00/00 A3009 RMK A01 T00010001  RH  100%=      5-min Rain = 0
KBO1 150420Z 19018KT 00/00 A3009 RMK A01 T00010001  RH  100%=      5-min Rain = 0
KBO1 150421Z 19018KT 00/00 A3009 RMK A01 T00010001  RH  100%=      5-min Rain = 0
KBO1 150422Z 19017KT 00/00 A3009 RMK A01 T00010001  RH  100%=      5-min Rain = 0
KBO1 150423Z 19018KT 00/00 A3009 RMK A01 T00010001  RH  100%=      5-min Rain = 0
KBO1 150424Z 19018KT 00/00 A3009 RMK A01 T00010001  RH  100%=      5-min Rain = 0
KBO1 150425Z 19020KT 00/00 A3009 RMK A01 T00010001  RH  100%=      5-min Rain = 0
KBO1 150426Z 19018KT 00/00 A3009 RMK A01 T00020001  RH  100%=      5-min Rain = 0
KBO1 150427Z 19019KT 00/00 A3009 RMK A01 T00010001  RH  100%=      5-min Rain = 0
KBO1 150428Z 19018KT 00/00 A3009 RMK A01 T00010001  RH  100%=      5-min Rain = 0
KBO1 150429Z 19019KT 00/00 A3009 RMK A01 T00010001  RH  100%=      5-min Rain = 0
KBO1 150430Z 19019KT 00/00 A3009 RMK A01 T00010001  RH  100%=      5-min Rain = 0
KBO1 150431Z 19020KT 00/00 A3009 RMK A01 T00020002  RH  100%=      5-min Rain = 0
KBO1 150432Z 19018KT 00/00 A3009 RMK A01 T00020002  RH  100%=      5-min Rain = 0
KBO1 150433Z 19018KT 00/00 A3009 RMK A01 T00020002  RH  100%=      5-min Rain = 0
KBO1 150434Z 19019KT 00/00 A3009 RMK A01 T00020002  RH  100%=      5-min Rain = 0
KBO1 150435Z 19018KT 00/00 A3009 RMK A01 T00020002  RH  100%=      5-min Rain = 0
KBO1 150436Z 19019KT 00/00 A3009 RMK A01 T00020002  RH  100%=      5-min Rain = 0
KBO1 150437Z 19019KT 00/00 A3009 RMK A01 T00020002  RH  100%=      5-min Rain = 0
KBO1 150438Z 19018KT 00/00 A3009 RMK A01 T00020002  RH  100%=      5-min Rain = 0
KBO1 150439Z 19020KT 00/00 A3009 RMK A01 T00020002  RH  100%=      5-min Rain = 0
KBO1 150440Z 19021KT 00/00 A3008 RMK A01 T00030003  RH  100%=      5-min Rain = 0
KBO1 150441Z 19020KT 00/00 A3009 RMK A01 T00030003  RH  100%=      5-min Rain = 0
KBO1 150442Z 19018KT 00/00 A3009 RMK A01 T00030003  RH  100%=      5-min Rain = 0
KBO1 150443Z 19017KT 00/00 A3009 RMK A01 T00030003  RH  100%=      5-min Rain = 0
KBO1 150444Z 19017KT 00/00 A3009 RMK A01 T00020002  RH  100%=      5-min Rain = 0
KBO1 150445Z 19018KT 00/00 A3008 RMK A01 T00020002  RH  100%=      5-min Rain = 0
KBO1 150446Z 19018KT 00/00 A3008 RMK A01 T00020002  RH  100%=      5-min Rain = 0
KBO1 150447Z 19018KT 00/00 A3008 RMK A01 T00030003  RH  100%=      5-min Rain = 0
KBO1 150448Z 19019KT 00/00 A3008 RMK A01 T00030003  RH  100%=      5-min Rain = 0
KBO1 150449Z 19019KT 00/00 A3008 RMK A01 T00030002  RH  100%=      5-min Rain = 0
KBO1 150450Z 19017KT 00/00 A3008 RMK A01 T00020002  RH  100%=      5-min Rain = 0
KBO1 150451Z 19017KT 00/00 A3008 RMK A01 T00020002  RH  100%=      5-min Rain = 0
KBO1 150452Z 19017KT 00/00 A3008 RMK A01 T00020001  RH  100%=      5-min Rain = 0
KBO1 150453Z 19017KT 00/00 A3008 RMK A01 T00020002  RH  100%=      5-min Rain = 0
KBO1 150454Z 19018KT 00/00 A3008 RMK A01 T00020002  RH  100%=      5-min Rain = 0
KBO1 150455Z 19018KT 00/00 A3008 RMK A01 T00020002  RH  100%=      5-min Rain = 0
KBO1 150456Z 19019KT 00/00 A3008 RMK A01 T00020002  RH  100%=      5-min Rain = 0
KBO1 150457Z 19019KT 00/00 A3008 RMK A01 T00020002  RH  100%=      5-min Rain = 0
KBO1 150458Z 19019KT 00/00 A3008 RMK A01 T00020002  RH  100%=      5-min Rain = 0
KBO1 150459Z 19018KT 00/00 A3008 RMK A01 T00020002  RH  100%=      5-min Rain = 0
KBO1 150500Z 19018KT 00/00 A3008 RMK A01 T00020002  RH  100%=      5-min Rain = 0
KBO1 150501Z 19019KT 00/00 A3008 RMK A01 T00020001  RH  100%=      5-min Rain = 0
KBO1 150502Z 19018KT 00/00 A3008 RMK A01 T00020002  RH  100%=      5-min Rain = 0
KBO1 150503Z 19018KT 00/00 A3008 RMK A01 T00020002  RH  100%=      5-min Rain = 0
KBO1 150504Z 19018KT 00/00 A3008 RMK A01 T00020002  RH  100%=      5-min Rain = 0
KBO1 150505Z 19019KT 00/00 A3008 RMK A01 T00020002  RH  100%=      5-min Rain = 0
KBO1 150506Z 19019KT 00/00 A3007 RMK A01 T00020002  RH  100%=      5-min Rain = 0
KBO1 150507Z 19019KT 00/00 A3007 RMK A01 T00030003  RH  100%=      5-min Rain = 0
KBO1 150508Z 19018KT 00/00 A3007 RMK A01 T00030002  RH  100%=      5-min Rain = 0
KBO1 150509Z 19018KT 00/00 A3007 RMK A01 T00030002  RH  100%=      5-min Rain = 0
KBO1 150510Z 19018KT 00/00 A3007 RMK A01 T00030002  RH  099%=      5-min Rain = 0
KBO1 150511Z 19019KT 00/00 A3007 RMK A01 T00030002  RH  099%=      5-min Rain = 0
KBO1 150512Z 19018KT 00/00 A3007 RMK A01 T00030002  RH  099%=      5-min Rain = 0
KBO1 150513Z 19019KT 00/00 A3007 RMK A01 T00030002  RH  099%=      5-min Rain = 0
KBO1 150514Z 20017KT 00/00 A3007 RMK A01 T00030002  RH  099%=      5-min Rain = 0
KBO1 150515Z 20018KT 00/00 A3007 RMK A01 T00030002  RH  099%=      5-min Rain = 0
KBO1 150516Z 20017KT 00/00 A3007 RMK A01 T00030002  RH  099%=      5-min Rain = 0
KBO1 150517Z 20018KT 00/00 A3007 RMK A01 T00030002  RH  099%=      5-min Rain = 0
KBO1 150518Z 20017KT 00/00 A3007 RMK A01 T00040002  RH  099%=      5-min Rain = 0
KBO1 150519Z 20017KT 00/00 A3007 RMK A01 T00040002  RH  099%=      5-min Rain = 0
KBO1 150520Z 20018KT 00/00 A3007 RMK A01 T00040002  RH  099%=      5-min Rain = 0
KBO1 150521Z 20017KT 00/00 A3007 RMK A01 T00040002  RH  099%=      5-min Rain = 0
KBO1 150522Z 20019KT 00/00 A3007 RMK A01 T00040002  RH  099%=      5-min Rain = 0
KBO1 150523Z 20019KT 00/00 A3007 RMK A01 T00040002  RH  099%=      5-min Rain = 0
KBO1 150524Z 20017KT 01/00 A3007 RMK A01 T00050003  RH  099%=      5-min Rain = 0
KBO1 150525Z 20018KT 01/00 A3007 RMK A01 T00050002  RH  098%=      5-min Rain = 0
KBO1 150526Z 20017KT 01/00 A3006 RMK A01 T00050003  RH  098%=      5-min Rain = 0
KBO1 150527Z 20018KT 01/00 A3006 RMK A01 T00050003  RH  098%=      5-min Rain = 0
KBO1 150528Z 20019KT 01/00 A3006 RMK A01 T00050003  RH  098%=      5-min Rain = 0
KBO1 150529Z 20019KT 01/00 A3006 RMK A01 T00050003  RH  098%=      5-min Rain = 0
KBO1 150530Z 20018KT 01/00 A3006 RMK A01 T00060003  RH  098%=      5-min Rain = 0
KBO1 150531Z 20020KT 01/00 A3006 RMK A01 T00060003  RH  098%=      5-min Rain = 0
KBO1 150532Z 20019KT 01/00 A3006 RMK A01 T00070004  RH  098%=      5-min Rain = 0
KBO1 150533Z 20020KT 01/00 A3006 RMK A01 T00070004  RH  098%=      5-min Rain = 0
KBO1 150534Z 20020KT 01/00 A3006 RMK A01 T00070004  RH  098%=      5-min Rain = 0
KBO1 150535Z 20019KT 01/01 A3006 RMK A01 T00080005  RH  098%=      5-min Rain = 0
KBO1 150536Z 20018G23KT 01/01 A3006 RMK A01 T00080005  RH  098%=      5-min Rain = 0
KBO1 150537Z 20019KT 01/01 A3006 RMK A01 T00080005  RH  097%=      5-min Rain = 0
KBO1 150538Z 20019KT 01/00 A3006 RMK A01 T00080004  RH  097%=      5-min Rain = 0
KBO1 150539Z 20019KT 01/01 A3005 RMK A01 T00080005  RH  098%=      5-min Rain = 0
KBO1 150540Z 20020KT 01/01 A3005 RMK A01 T00080005  RH  097%=      5-min Rain = 0
KBO1 150541Z 20019KT 01/01 A3005 RMK A01 T00090005  RH  097%=      5-min Rain = 0
KBO1 150542Z 20019KT 01/01 A3006 RMK A01 T00090005  RH  097%=      5-min Rain = 0
KBO1 150543Z 20019KT 01/01 A3006 RMK A01 T00090005  RH  097%=      5-min Rain = 0
KBO1 150544Z 20019G24KT 01/01 A3006 RMK A01 T00090005  RH  097%=      5-min Rain = 0
KBO1 150545Z 20018KT 01/01 A3006 RMK A01 T00090005  RH  097%=      5-min Rain = 0
KBO1 150546Z 20020KT 01/01 A3006 RMK A01 T00090005  RH  097%=      5-min Rain = 0
KBO1 150547Z 20019KT 01/01 A3006 RMK A01 T00100005  RH  097%=      5-min Rain = 0
KBO1 150548Z 20020KT 01/01 A3006 RMK A01 T00100005  RH  097%=      5-min Rain = 0
KBO1 150549Z 20019KT 01/01 A3006 RMK A01 T00100005  RH  096%=      5-min Rain = 0
KBO1 150550Z 21019KT 01/01 A3005 RMK A01 T00100005  RH  096%=      5-min Rain = 0
KBO1 150551Z 21019KT 01/01 A3005 RMK A01 T00100005  RH  096%=      5-min Rain = 0
KBO1 150552Z 20019KT 01/01 A3006 RMK A01 T00100005  RH  096%=      5-min Rain = 0
KBO1 150553Z 20019KT 01/00 A3005 RMK A01 T00100004  RH  096%=      5-min Rain = 0
KBO1 150554Z 21018KT 01/01 A3006 RMK A01 T00100005  RH  096%=      5-min Rain = 0
KBO1 150555Z 21018KT 01/00 A3006 RMK A01 T00100004  RH  096%=      5-min Rain = 0
KBO1 150556Z 20019KT 01/01 A3005 RMK A01 T00100005  RH  096%=      5-min Rain = 0
KBO1 150557Z 20020KT 01/01 A3005 RMK A01 T00100005  RH  097%=      5-min Rain = 0
KBO1 150558Z 20020KT 01/01 A3005 RMK A01 T00110006  RH  096%=      5-min Rain = 0
KBO1 150559Z 21019KT 01/01 A3005 RMK A01 T00120006  RH  096%=      5-min Rain = 0

Page generated in 0.1226 seconds.